Time,TemperatureF,DewpointF,PressureIn,WindDirection,WindDirectionDegrees,WindSpeedMPH,WindSpeedGustMPH,Humidity,HourlyPrecipIn,Conditions,Clouds,dailyrainin,SoftwareType,DateUTC
2013-02-12 00:00:00,34.5,34.5,30.06,NW,315,13.0,17.0,0,0.00,,,0.14,meteohub,2013-02-12 05:00:00,
2013-02-12 00:01:00,34.5,34.5,30.06,West,270,8.0,23.0,0,0.00,,,0.14,meteohub,2013-02-12 05:01:00,
2013-02-12 00:05:00,34.5,34.5,30.07,WSW,248,8.0,23.0,0,0.00,,,0.00,meteohub,2013-02-12 05:05:00,
2013-02-12 00:06:00,34.5,34.5,30.07,WSW,248,8.0,23.0,0,0.00,,,0.00,meteohub,2013-02-12 05:06:00,
2013-02-12 00:10:00,34.3,34.3,30.07,South,180,8.0,13.0,0,0.00,,,0.00,meteohub,2013-02-12 05:10:00,
2013-02-12 00:11:00,34.3,34.3,30.07,West,270,17.0,17.0,0,0.00,,,0.00,meteohub,2013-02-12 05:11:00,
2013-02-12 00:12:00,34.3,34.3,30.07,North,0,10.0,13.0,0,0.00,,,0.00,meteohub,2013-02-12 05:12:00,
2013-02-12 00:16:00,34.3,34.3,30.07,West,270,9.0,17.0,0,0.00,,,0.00,meteohub,2013-02-12 05:16:00,
2013-02-12 00:17:00,34.3,34.3,30.07,West,270,9.0,17.0,0,0.00,,,0.00,meteohub,2013-02-12 05:17:00,
2013-02-12 00:18:00,34.3,34.3,30.08,West,270,8.0,17.0,0,0.00,,,0.00,meteohub,2013-02-12 05:18:00,
2013-02-12 00:21:00,34.2,34.2,30.08,WSW,248,5.0,17.0,0,0.00,,,0.00,meteohub,2013-02-12 05:21:00,
2013-02-12 00:22:00,34.2,34.2,30.08,West,270,11.0,17.0,0,0.00,,,0.00,meteohub,2013-02-12 05:22:00,
2013-02-12 00:24:00,34.2,34.2,30.08,WSW,248,2.0,17.0,0,0.00,,,0.00,meteohub,2013-02-12 05:24:00,
2013-02-12 00:27:00,34.0,34.0,30.08,WSW,248,8.0,17.0,0,0.00,,,0.00,meteohub,2013-02-12 05:27:00,
2013-02-12 00:28:00,34.0,34.0,30.08,West,270,7.0,17.0,0,0.00,,,0.00,meteohub,2013-02-12 05:28:00,
2013-02-12 00:29:00,34.0,34.0,30.08,WSW,248,10.0,17.0,0,0.00,,,0.00,meteohub,2013-02-12 05:29:00,
2013-02-12 00:32:00,34.0,34.0,30.08,NW,315,8.0,12.0,0,0.00,,,0.00,meteohub,2013-02-12 05:32:00,
2013-02-12 00:33:00,34.0,34.0,30.08,NW,315,8.0,12.0,0,0.00,,,0.00,meteohub,2013-02-12 05:33:00,
2013-02-12 00:34:00,33.8,33.8,30.08,NW,315,23.0,23.0,0,0.00,,,0.00,meteohub,2013-02-12 05:34:00,
2013-02-12 00:38:00,33.8,33.8,30.08,NW,315,6.0,12.0,0,0.00,,,0.00,meteohub,2013-02-12 05:38:00,
2013-02-12 00:39:00,33.8,33.8,30.08,West,270,9.0,12.0,0,0.00,,,0.00,meteohub,2013-02-12 05:39:00,
2013-02-12 00:40:00,33.8,33.8,30.08,NW,315,15.0,23.0,0,0.00,,,0.00,meteohub,2013-02-12 05:40:00,
2013-02-12 00:43:00,33.8,33.8,30.08,WSW,248,13.0,23.0,0,0.00,,,0.00,meteohub,2013-02-12 05:43:00,
2013-02-12 00:45:00,33.8,33.8,30.08,NW,315,13.0,23.0,0,0.00,,,0.00,meteohub,2013-02-12 05:45:00,
2013-02-12 00:46:00,33.6,33.6,30.08,South,180,15.0,23.0,0,0.00,,,0.00,meteohub,2013-02-12 05:46:00,
2013-02-12 00:49:00,33.6,33.6,30.08,West,270,12.0,23.0,0,0.00,,,0.00,meteohub,2013-02-12 05:49:00,
2013-02-12 00:50:00,33.6,33.6,30.08,West,270,8.0,23.0,0,0.00,,,0.00,meteohub,2013-02-12 05:50:00,
2013-02-12 00:51:00,33.6,33.6,30.08,North,0,11.0,23.0,0,0.00,,,0.00,meteohub,2013-02-12 05:51:00,
2013-02-12 00:52:00,33.6,33.6,30.08,North,0,9.0,23.0,0,0.00,,,0.00,meteohub,2013-02-12 05:52:00,
2013-02-12 00:54:00,33.4,33.4,30.08,West,270,9.0,23.0,0,0.00,,,0.00,meteohub,2013-02-12 05:54:00,
2013-02-12 00:55:00,33.4,33.4,30.08,NW,315,16.0,17.0,0,0.00,,,0.00,meteohub,2013-02-12 05:55:00,
2013-02-12 00:56:00,33.4,33.4,30.08,NW,315,16.0,17.0,0,0.00,,,0.00,meteohub,2013-02-12 05:56:00,
2013-02-12 00:57:00,33.4,33.4,30.08,West,270,8.0,17.0,0,0.00,,,0.00,meteohub,2013-02-12 05:57:00,
2013-02-12 01:00:00,33.4,33.4,30.08,West,270,8.0,17.0,0,0.00,,,0.00,meteohub,2013-02-12 06:00:00,
2013-02-12 01:01:00,33.4,33.4,30.09,West,270,8.0,17.0,0,0.00,,,0.00,meteohub,2013-02-12 06:01:00,
2013-02-12 01:03:00,33.4,33.4,30.08,West,270,8.0,17.0,0,0.00,,,0.00,meteohub,2013-02-12 06:03:00,
2013-02-12 01:06:00,33.4,33.4,30.09,West,270,8.0,16.0,0,0.00,,,0.00,meteohub,2013-02-12 06:06:00,
2013-02-12 01:07:00,33.4,33.4,30.09,West,270,8.0,16.0,0,0.00,,,0.00,meteohub,2013-02-12 06:07:00,
2013-02-12 01:08:00,33.1,33.1,30.08,West,270,16.0,16.0,0,0.00,,,0.00,meteohub,2013-02-12 06:08:00,
2013-02-12 01:11:00,33.3,33.3,30.08,South,180,7.0,16.0,0,0.00,,,0.00,meteohub,2013-02-12 06:11:00,
2013-02-12 01:12:00,33.3,33.3,30.08,South,180,7.0,16.0,0,0.00,,,0.00,meteohub,2013-02-12 06:12:00,
2013-02-12 01:14:00,33.1,33.1,30.09,WSW,248,5.0,16.0,0,0.00,,,0.00,meteohub,2013-02-12 06:14:00,
2013-02-12 01:17:00,33.1,33.1,30.09,South,180,13.0,17.0,0,0.00,,,0.00,meteohub,2013-02-12 06:17:00,
2013-02-12 01:18:00,33.1,33.1,30.09,West,270,10.0,17.0,0,0.00,,,0.00,meteohub,2013-02-12 06:18:00,
2013-02-12 01:20:00,33.1,33.1,30.09,WSW,248,12.0,17.0,0,0.00,,,0.00,meteohub,2013-02-12 06:20:00,
2013-02-12 01:22:00,33.1,33.1,30.09,WNW,293,11.0,17.0,0,0.00,,,0.00,meteohub,2013-02-12 06:22:00,
2013-02-12 01:23:00,33.1,33.1,30.09,WNW,293,11.0,17.0,0,0.00,,,0.00,meteohub,2013-02-12 06:23:00,
2013-02-12 01:24:00,33.1,33.1,30.09,West,270,11.0,17.0,0,0.00,,,0.00,meteohub,2013-02-12 06:24:00,
2013-02-12 01:25:00,33.1,33.1,30.09,WSW,248,11.0,16.0,0,0.00,,,0.00,meteohub,2013-02-12 06:25:00,
2013-02-12 01:28:00,33.1,33.1,30.09,WSW,248,11.0,16.0,0,0.00,,,0.00,meteohub,2013-02-12 06:28:00,
2013-02-12 01:29:00,33.1,33.1,30.09,NW,315,11.0,16.0,0,0.00,,,0.00,meteohub,2013-02-12 06:29:00,
2013-02-12 01:32:00,33.1,33.1,30.09,West,270,14.0,17.0,0,0.00,,,0.00,meteohub,2013-02-12 06:32:00,
2013-02-12 01:33:00,33.1,33.1,30.09,North,0,9.0,17.0,0,0.00,,,0.00,meteohub,2013-02-12 06:33:00,
2013-02-12 01:34:00,33.1,33.1,30.09,West,270,15.0,17.0,0,0.00,,,0.00,meteohub,2013-02-12 06:34:00,
2013-02-12 01:35:00,33.1,33.1,30.09,WSW,248,10.0,17.0,0,0.00,,,0.00,meteohub,2013-02-12 06:35:00,
2013-02-12 01:37:00,33.1,33.1,30.09,West,270,11.0,17.0,0,0.00,,,0.00,meteohub,2013-02-12 06:37:00,
2013-02-12 01:39:00,33.1,33.1,30.09,WSW,248,6.0,17.0,0,0.00,,,0.00,meteohub,2013-02-12 06:39:00,
2013-02-12 01:40:00,33.1,33.1,30.09,WSW,248,11.0,17.0,0,0.00,,,0.00,meteohub,2013-02-12 06:40:00,
2013-02-12 01:42:00,33.1,33.1,30.09,WSW,248,8.0,18.0,0,0.00,,,0.00,meteohub,2013-02-12 06:42:00,
2013-02-12 01:44:00,32.9,32.9,30.09,WSW,248,15.0,18.0,0,0.00,,,0.00,meteohub,2013-02-12 06:44:00,
2013-02-12 01:47:00,32.9,32.9,30.09,West,270,15.0,18.0,0,0.00,,,0.00,meteohub,2013-02-12 06:47:00,
2013-02-12 01:49:00,32.9,32.9,30.09,West,270,8.0,18.0,0,0.00,,,0.00,meteohub,2013-02-12 06:49:00,
2013-02-12 01:50:00,32.9,32.9,30.09,WSW,248,15.0,16.0,0,0.00,,,0.00,meteohub,2013-02-12 06:50:00,
2013-02-12 01:52:00,32.7,32.7,30.09,West,270,7.0,16.0,0,0.00,,,0.00,meteohub,2013-02-12 06:52:00,
2013-02-12 01:53:00,32.7,32.7,30.09,West,270,7.0,16.0,0,0.00,,,0.00,meteohub,2013-02-12 06:53:00,
2013-02-12 01:56:00,32.7,32.7,30.09,West,270,8.0,16.0,0,0.00,,,0.00,meteohub,2013-02-12 06:56:00,
2013-02-12 01:57:00,32.7,32.7,30.09,South,180,8.0,16.0,0,0.00,,,0.00,meteohub,2013-02-12 06:57:00,
2013-02-12 01:58:00,32.7,32.7,30.09,West,270,11.0,16.0,0,0.00,,,0.00,meteohub,2013-02-12 06:58:00,
2013-02-12 02:02:00,32.7,32.7,30.09,West,270,11.0,16.0,0,0.00,,,0.00,meteohub,2013-02-12 07:02:00,
2013-02-12 02:03:00,32.7,32.7,30.09,West,270,11.0,16.0,0,0.00,,,0.00,meteohub,2013-02-12 07:03:00,
2013-02-12 02:07:00,32.4,32.4,30.09,South,180,8.0,15.0,0,0.00,,,0.00,meteohub,2013-02-12 07:07:00,
2013-02-12 02:08:00,32.4,32.4,30.09,WSW,248,14.0,15.0,0,0.00,,,0.00,meteohub,2013-02-12 07:08:00,
2013-02-12 02:09:00,32.4,32.4,30.09,WSW,248,8.0,15.0,0,0.00,,,0.00,meteohub,2013-02-12 07:09:00,
2013-02-12 02:13:00,32.4,32.4,30.09,WSW,248,11.0,14.0,0,0.00,,,0.00,meteohub,2013-02-12 07:13:00,
2013-02-12 02:15:00,32.2,32.2,30.09,WSW,248,8.0,14.0,0,0.00,,,0.00,meteohub,2013-02-12 07:15:00,
2013-02-12 02:18:00,32.2,32.2,30.10,NW,315,12.0,14.0,0,0.00,,,0.00,meteohub,2013-02-12 07:18:00,
2013-02-12 02:19:00,32.2,32.2,30.10,NW,315,7.0,14.0,0,0.00,,,0.00,meteohub,2013-02-12 07:19:00,
2013-02-12 02:20:00,32.2,-18.4,30.09,SE,135,9.0,14.0,10,0.00,,,0.00,meteohub,2013-02-12 07:20:00,
2013-02-12 02:23:00,32.2,-18.4,30.10,WSW,248,4.0,14.0,10,0.00,,,0.00,meteohub,2013-02-12 07:23:00,
2013-02-12 02:24:00,32.0,-18.4,30.10,WSW,248,10.0,14.0,10,0.00,,,0.00,meteohub,2013-02-12 07:24:00,
2013-02-12 02:25:00,32.0,-16.6,30.09,West,270,15.0,15.0,11,0.00,,,0.00,meteohub,2013-02-12 07:25:00,
2013-02-12 02:26:00,32.0,-16.6,30.09,West,270,11.0,12.0,11,0.00,,,0.00,meteohub,2013-02-12 07:26:00,
2013-02-12 02:28:00,32.0,-16.6,30.09,South,180,8.0,12.0,11,0.00,,,0.00,meteohub,2013-02-12 07:28:00,
2013-02-12 02:30:00,32.0,-16.6,30.10,West,270,11.0,12.0,11,0.00,,,0.00,meteohub,2013-02-12 07:30:00,
2013-02-12 02:31:00,32.0,-16.6,30.09,NW,315,11.0,15.0,11,0.00,,,0.00,meteohub,2013-02-12 07:31:00,
2013-02-12 02:34:00,32.0,-16.6,30.09,NW,315,11.0,15.0,11,0.00,,,0.00,meteohub,2013-02-12 07:34:00,
2013-02-12 02:35:00,32.0,-16.6,30.10,NW,315,7.0,20.0,11,0.00,,,0.00,meteohub,2013-02-12 07:35:00,
2013-02-12 02:36:00,32.0,-16.6,30.09,West,270,6.0,20.0,11,0.00,,,0.00,meteohub,2013-02-12 07:36:00,
2013-02-12 02:39:00,32.0,-15.0,30.09,West,270,8.0,20.0,12,0.00,,,0.00,meteohub,2013-02-12 07:39:00,
2013-02-12 02:40:00,32.0,-15.0,30.10,NW,315,6.0,20.0,12,0.00,,,0.00,meteohub,2013-02-12 07:40:00,
2013-02-12 02:42:00,32.0,-15.0,30.09,NW,315,6.0,20.0,12,0.00,,,0.00,meteohub,2013-02-12 07:42:00,
2013-02-12 02:44:00,32.0,-15.0,30.09,WSW,248,11.0,20.0,12,0.00,,,0.00,meteohub,2013-02-12 07:44:00,
2013-02-12 02:45:00,32.0,-15.0,30.09,WSW,248,11.0,14.0,12,0.00,,,0.00,meteohub,2013-02-12 07:45:00,
2013-02-12 02:47:00,32.0,-15.0,30.10,West,270,8.0,14.0,12,0.00,,,0.00,meteohub,2013-02-12 07:47:00,
2013-02-12 02:48:00,32.0,-16.6,30.10,South,180,7.0,14.0,11,0.00,,,0.00,meteohub,2013-02-12 07:48:00,
2013-02-12 02:49:00,32.0,-16.6,30.10,WSW,248,11.0,14.0,11,0.00,,,0.00,meteohub,2013-02-12 07:49:00,
2013-02-12 02:51:00,32.0,-16.6,30.10,NW,315,10.0,14.0,11,0.00,,,0.00,meteohub,2013-02-12 07:51:00,
2013-02-12 02:52:00,32.0,-16.6,30.10,West,270,14.0,14.0,11,0.00,,,0.00,meteohub,2013-02-12 07:52:00,
2013-02-12 02:54:00,32.0,-16.6,30.10,South,180,5.0,14.0,11,0.00,,,0.00,meteohub,2013-02-12 07:54:00,
2013-02-12 02:57:00,32.0,-16.6,30.10,West,270,8.0,14.0,11,0.00,,,0.00,meteohub,2013-02-12 07:57:00,
2013-02-12 02:59:00,32.0,-16.6,30.09,WSW,248,8.0,14.0,11,0.00,,,0.00,meteohub,2013-02-12 07:59:00,
2013-02-12 03:00:00,32.0,-16.6,30.10,North,0,4.0,14.0,11,0.00,,,0.00,meteohub,2013-02-12 08:00:00,
2013-02-12 03:02:00,32.0,-16.6,30.10,North,0,4.0,14.0,11,0.00,,,0.00,meteohub,2013-02-12 08:02:00,
2013-02-12 03:03:00,32.0,-16.6,30.10,North,0,4.0,14.0,11,0.00,,,0.00,meteohub,2013-02-12 08:03:00,
2013-02-12 03:05:00,32.0,-16.6,30.10,North,0,4.0,14.0,11,0.00,,,0.00,meteohub,2013-02-12 08:05:00,
2013-02-12 03:07:00,32.0,-15.0,30.10,West,270,9.0,14.0,12,0.00,,,0.00,meteohub,2013-02-12 08:07:00,
2013-02-12 03:08:00,32.0,-15.0,30.10,WSW,248,4.0,14.0,12,0.00,,,0.00,meteohub,2013-02-12 08:08:00,
2013-02-12 03:10:00,32.0,-15.0,30.10,WSW,248,8.0,11.0,12,0.00,,,0.00,meteohub,2013-02-12 08:10:00,
2013-02-12 03:11:00,32.0,-15.0,30.10,North,0,11.0,11.0,12,0.00,,,0.00,meteohub,2013-02-12 08:11:00,
2013-02-12 03:13:00,32.0,-15.0,30.10,North,0,13.0,13.0,12,0.00,,,0.00,meteohub,2013-02-12 08:13:00,
2013-02-12 03:14:00,32.0,-16.6,30.10,NW,315,13.0,13.0,11,0.00,,,0.00,meteohub,2013-02-12 08:14:00,
2013-02-12 03:15:00,32.0,-16.6,30.10,SE,135,5.0,13.0,11,0.00,,,0.00,meteohub,2013-02-12 08:15:00,
2013-02-12 03:16:00,32.0,-16.6,30.10,West,270,13.0,13.0,11,0.00,,,0.00,meteohub,2013-02-12 08:16:00,
2013-02-12 03:18:00,32.0,-16.6,30.10,West,270,10.0,13.0,11,0.00,,,0.00,meteohub,2013-02-12 08:18:00,
2013-02-12 03:19:00,32.0,-16.6,30.10,NW,315,11.0,13.0,11,0.00,,,0.00,meteohub,2013-02-12 08:19:00,
2013-02-12 03:21:00,32.0,-16.6,30.10,WSW,248,6.0,15.0,11,0.00,,,0.00,meteohub,2013-02-12 08:21:00,
2013-02-12 03:24:00,32.0,-16.6,30.10,South,180,6.0,15.0,11,0.00,,,0.00,meteohub,2013-02-12 08:24:00,
2013-02-12 03:25:00,32.0,-15.0,30.10,West,270,8.0,15.0,12,0.00,,,0.00,meteohub,2013-02-12 08:25:00,
2013-02-12 03:26:00,32.0,-15.0,30.10,West,270,11.0,15.0,12,0.00,,,0.00,meteohub,2013-02-12 08:26:00,
2013-02-12 03:27:00,32.0,-15.0,30.10,West,270,11.0,15.0,12,0.00,,,0.00,meteohub,2013-02-12 08:27:00,
2013-02-12 03:29:00,32.0,-15.0,30.10,North,0,4.0,15.0,12,0.00,,,0.00,meteohub,2013-02-12 08:29:00,
2013-02-12 03:30:00,32.0,-15.0,30.10,NE,45,4.0,15.0,12,0.00,,,0.00,meteohub,2013-02-12 08:30:00,
2013-02-12 03:31:00,32.0,-16.6,30.10,WSW,248,13.0,15.0,11,0.00,,,0.00,meteohub,2013-02-12 08:31:00,
2013-02-12 03:32:00,32.0,-15.0,30.10,West,270,10.0,15.0,12,0.00,,,0.00,meteohub,2013-02-12 08:32:00,
2013-02-12 03:34:00,32.0,-16.6,30.09,West,270,8.0,15.0,11,0.00,,,0.00,meteohub,2013-02-12 08:34:00,
2013-02-12 03:35:00,32.0,-16.6,30.09,WSW,248,7.0,15.0,11,0.00,,,0.00,meteohub,2013-02-12 08:35:00,
2013-02-12 03:37:00,32.0,-16.6,30.10,WSW,248,14.0,15.0,11,0.00,,,0.00,meteohub,2013-02-12 08:37:00,
2013-02-12 03:39:00,32.0,-16.6,30.09,NW,315,8.0,15.0,11,0.00,,,0.00,meteohub,2013-02-12 08:39:00,
2013-02-12 03:40:00,32.0,-16.6,30.10,West,270,7.0,19.0,11,0.00,,,0.00,meteohub,2013-02-12 08:40:00,
2013-02-12 03:42:00,32.0,-16.6,30.10,WSW,248,8.0,19.0,11,0.00,,,0.00,meteohub,2013-02-12 08:42:00,
2013-02-12 03:43:00,32.0,-16.6,30.10,WSW,248,8.0,19.0,11,0.00,,,0.00,meteohub,2013-02-12 08:43:00,
2013-02-12 03:45:00,32.0,-18.4,30.09,East,90,12.0,19.0,10,0.00,,,0.00,meteohub,2013-02-12 08:45:00,
2013-02-12 03:48:00,32.0,-16.6,30.09,West,270,8.0,19.0,11,0.00,,,0.00,meteohub,2013-02-12 08:48:00,
2013-02-12 03:51:00,32.0,-18.4,30.09,West,270,7.0,14.0,10,0.00,,,0.00,meteohub,2013-02-12 08:51:00,
2013-02-12 03:53:00,32.0,-18.4,30.09,NW,315,11.0,14.0,10,0.00,,,0.00,meteohub,2013-02-12 08:53:00,
2013-02-12 03:54:00,32.0,-18.4,30.09,West,270,5.0,14.0,10,0.00,,,0.00,meteohub,2013-02-12 08:54:00,
2013-02-12 03:56:00,32.0,-18.4,30.09,WSW,248,8.0,13.0,10,0.00,,,0.00,meteohub,2013-02-12 08:56:00,
2013-02-12 03:58:00,32.0,-18.4,30.10,NW,315,7.0,13.0,10,0.00,,,0.00,meteohub,2013-02-12 08:58:00,
2013-02-12 03:59:00,32.0,-18.4,30.10,WSW,248,5.0,13.0,10,0.00,,,0.00,meteohub,2013-02-12 08:59:00,
2013-02-12 04:02:00,32.0,-18.4,30.10,NW,315,4.0,13.0,10,0.00,,,0.00,meteohub,2013-02-12 09:02:00,
2013-02-12 04:16:00,32.2,32.2,30.10,NW,315,14.0,14.0,0,0.00,,,0.00,meteohub,2013-02-12 09:16:00,
2013-02-12 04:17:00,32.2,32.2,30.10,WSW,248,6.0,13.0,0,0.00,,,0.00,meteohub,2013-02-12 09:17:00,
2013-02-12 04:21:00,32.2,32.2,30.10,West,270,11.0,14.0,0,0.00,,,0.00,meteohub,2013-02-12 09:21:00,
2013-02-12 04:22:00,32.2,32.2,30.10,West,270,15.0,15.0,0,0.00,,,0.00,meteohub,2013-02-12 09:22:00,
2013-02-12 04:27:00,32.2,32.2,30.10,WNW,293,5.0,15.0,0,0.00,,,0.00,meteohub,2013-02-12 09:27:00,
2013-02-12 04:28:00,32.2,32.2,30.10,WNW,293,13.0,15.0,0,0.00,,,0.00,meteohub,2013-02-12 09:28:00,
2013-02-12 04:32:00,32.2,32.2,30.11,WSW,248,16.0,16.0,0,0.00,,,0.00,meteohub,2013-02-12 09:32:00,
2013-02-12 04:33:00,32.2,32.2,30.11,WSW,248,8.0,15.0,0,0.00,,,0.00,meteohub,2013-02-12 09:33:00,
2013-02-12 04:38:00,32.2,32.2,30.11,WSW,248,11.0,16.0,0,0.00,,,0.00,meteohub,2013-02-12 09:38:00,
2013-02-12 04:39:00,32.2,32.2,30.11,West,270,9.0,16.0,0,0.00,,,0.00,meteohub,2013-02-12 09:39:00,
2013-02-12 04:43:00,32.2,32.2,30.11,WSW,248,8.0,16.0,0,0.00,,,0.00,meteohub,2013-02-12 09:43:00,
2013-02-12 04:45:00,32.2,32.2,30.11,West,270,4.0,16.0,0,0.00,,,0.00,meteohub,2013-02-12 09:45:00,
2013-02-12 04:48:00,32.2,32.2,30.10,WSW,248,6.0,16.0,0,0.00,,,0.00,meteohub,2013-02-12 09:48:00,
2013-02-12 04:49:00,32.2,32.2,30.10,WSW,248,6.0,16.0,0,0.00,,,0.00,meteohub,2013-02-12 09:49:00,
2013-02-12 04:50:00,32.2,32.2,30.10,NW,315,6.0,15.0,0,0.00,,,0.00,meteohub,2013-02-12 09:50:00,
2013-02-12 04:54:00,32.2,32.2,30.10,West,270,7.0,15.0,0,0.00,,,0.00,meteohub,2013-02-12 09:54:00,
2013-02-12 04:55:00,32.2,32.2,30.10,West,270,16.0,16.0,0,0.00,,,0.00,meteohub,2013-02-12 09:55:00,
2013-02-12 04:56:00,32.2,32.2,30.11,NW,315,13.0,15.0,0,0.00,,,0.00,meteohub,2013-02-12 09:56:00,
2013-02-12 04:59:00,32.2,32.2,30.11,NW,315,8.0,15.0,0,0.00,,,0.00,meteohub,2013-02-12 09:59:00,
2013-02-12 05:07:00,31.8,31.8,30.11,WSW,248,5.0,18.0,0,0.00,,,0.00,meteohub,2013-02-12 10:07:00,
2013-02-12 05:08:00,31.8,31.8,30.11,WSW,248,10.0,18.0,0,0.00,,,0.00,meteohub,2013-02-12 10:08:00,
2013-02-12 05:13:00,31.8,31.8,30.11,NW,315,11.0,16.0,0,0.00,,,0.00,meteohub,2013-02-12 10:13:00,
2013-02-12 05:14:00,31.8,31.8,30.11,WSW,248,11.0,16.0,0,0.00,,,0.00,meteohub,2013-02-12 10:14:00,
2013-02-12 05:16:00,31.5,31.5,30.11,NW,315,11.0,11.0,0,0.00,,,0.00,meteohub,2013-02-12 10:16:00,
2013-02-12 05:18:00,31.6,31.6,30.11,WSW,248,8.0,11.0,0,0.00,,,0.00,meteohub,2013-02-12 10:18:00,
2013-02-12 05:19:00,31.6,31.6,30.11,NW,315,11.0,11.0,0,0.00,,,0.00,meteohub,2013-02-12 10:19:00,
2013-02-12 05:22:00,31.6,31.6,30.11,WSW,248,10.0,13.0,0,0.00,,,0.00,meteohub,2013-02-12 10:22:00,
2013-02-12 05:23:00,31.6,31.6,30.11,WSW,248,4.0,13.0,0,0.00,,,0.00,meteohub,2013-02-12 10:23:00,
2013-02-12 05:24:00,31.5,31.5,30.11,WSW,248,18.0,18.0,0,0.00,,,0.00,meteohub,2013-02-12 10:24:00,
2013-02-12 05:27:00,31.5,31.5,30.11,West,270,7.0,18.0,0,0.00,,,0.00,meteohub,2013-02-12 10:27:00,
2013-02-12 05:28:00,31.5,31.5,30.11,West,270,8.0,18.0,0,0.00,,,0.00,meteohub,2013-02-12 10:28:00,
2013-02-12 05:29:00,31.5,-18.9,30.11,NW,315,5.0,18.0,10,0.00,,,0.00,meteohub,2013-02-12 10:29:00,
2013-02-12 05:30:00,31.5,-18.9,30.11,NW,315,5.0,18.0,10,0.00,,,0.00,meteohub,2013-02-12 10:30:00,
2013-02-12 05:32:00,31.5,-18.9,30.11,NW,315,6.0,18.0,10,0.00,,,0.00,meteohub,2013-02-12 10:32:00,
2013-02-12 05:35:00,31.3,-17.1,30.11,NW,315,13.0,18.0,11,0.00,,,0.00,meteohub,2013-02-12 10:35:00,
2013-02-12 05:39:00,31.3,-17.1,30.11,NW,315,5.0,18.0,11,0.00,,,0.00,meteohub,2013-02-12 10:39:00,
2013-02-12 05:40:00,31.3,-17.1,30.11,NW,315,5.0,13.0,11,0.00,,,0.00,meteohub,2013-02-12 10:40:00,
2013-02-12 05:41:00,31.3,-17.1,30.11,WSW,248,3.0,13.0,11,0.00,,,0.00,meteohub,2013-02-12 10:41:00,
2013-02-12 05:44:00,31.3,-17.1,30.11,NW,315,6.0,13.0,11,0.00,,,0.00,meteohub,2013-02-12 10:44:00,
2013-02-12 05:45:00,31.3,-17.1,30.10,WSW,248,8.0,13.0,11,0.00,,,0.00,meteohub,2013-02-12 10:45:00,
2013-02-12 05:46:00,31.3,-17.1,30.11,WSW,248,10.0,13.0,11,0.00,,,0.00,meteohub,2013-02-12 10:46:00,
2013-02-12 05:50:00,31.1,-15.7,30.11,South,180,2.0,13.0,12,0.00,,,0.00,meteohub,2013-02-12 10:50:00,
2013-02-12 05:51:00,31.1,-15.7,30.11,WSW,248,2.0,10.0,12,0.00,,,0.00,meteohub,2013-02-12 10:51:00,
2013-02-12 05:55:00,31.1,-15.7,30.11,West,270,7.0,10.0,12,0.00,,,0.00,meteohub,2013-02-12 10:55:00,
2013-02-12 05:56:00,31.1,-15.7,30.11,NW,315,6.0,10.0,12,0.00,,,0.00,meteohub,2013-02-12 10:56:00,
2013-02-12 05:57:00,31.1,-15.7,30.11,NW,315,4.0,10.0,12,0.00,,,0.00,meteohub,2013-02-12 10:57:00,
2013-02-12 06:01:00,30.9,-17.5,30.11,North,0,6.0,10.0,11,0.00,,,0.00,meteohub,2013-02-12 11:01:00,
2013-02-12 06:02:00,30.9,-17.5,30.11,North,0,6.0,10.0,11,0.00,,,0.00,meteohub,2013-02-12 11:02:00,
2013-02-12 06:06:00,30.9,-17.5,30.12,North,0,6.0,8.0,11,0.00,,,0.00,meteohub,2013-02-12 11:06:00,
2013-02-12 06:07:00,30.9,-17.5,30.12,North,0,6.0,8.0,11,0.00,,,0.00,meteohub,2013-02-12 11:07:00,
2013-02-12 06:11:00,30.9,-15.7,30.12,WSW,248,6.0,9.0,12,0.00,,,0.00,meteohub,2013-02-12 11:11:00,
2013-02-12 06:12:00,30.9,-15.7,30.11,West,270,10.0,10.0,12,0.00,,,0.00,meteohub,2013-02-12 11:12:00,
2013-02-12 06:13:00,30.9,-15.7,30.11,North,0,3.0,9.0,12,0.00,,,0.00,meteohub,2013-02-12 11:13:00,
2013-02-12 06:16:00,30.7,-17.7,30.12,WSW,248,15.0,15.0,11,0.00,,,0.00,meteohub,2013-02-12 11:16:00,
2013-02-12 06:18:00,30.7,-15.9,30.12,West,270,7.0,13.0,12,0.00,,,0.00,meteohub,2013-02-12 11:18:00,
2013-02-12 06:19:00,30.7,-15.9,30.12,NNW,338,4.0,13.0,12,0.00,,,0.00,meteohub,2013-02-12 11:19:00,
2013-02-12 06:21:00,30.7,-17.7,30.12,West,270,4.0,15.0,11,0.00,,,0.00,meteohub,2013-02-12 11:21:00,
2013-02-12 06:23:00,30.7,-17.7,30.12,SE,135,3.0,15.0,11,0.00,,,0.00,meteohub,2013-02-12 11:23:00,
2013-02-12 06:24:00,30.7,-15.9,30.12,West,270,9.0,15.0,12,0.00,,,0.00,meteohub,2013-02-12 11:24:00,
2013-02-12 06:27:00,30.6,-16.1,30.12,NW,315,7.0,15.0,12,0.00,,,0.00,meteohub,2013-02-12 11:27:00,
2013-02-12 06:28:00,30.6,-17.7,30.12,NW,315,8.0,15.0,11,0.00,,,0.00,meteohub,2013-02-12 11:28:00,
2013-02-12 06:29:00,30.6,-17.7,30.12,NW,315,7.0,15.0,11,0.00,,,0.00,meteohub,2013-02-12 11:29:00,
2013-02-12 06:30:00,30.6,-17.7,30.12,NW,315,8.0,15.0,11,0.00,,,0.00,meteohub,2013-02-12 11:30:00,
2013-02-12 06:33:00,30.6,-17.7,30.12,WSW,248,8.0,15.0,11,0.00,,,0.00,meteohub,2013-02-12 11:33:00,
2013-02-12 06:35:00,30.6,-17.7,30.12,West,270,4.0,15.0,11,0.00,,,0.00,meteohub,2013-02-12 11:35:00,
2013-02-12 06:36:00,30.6,-16.1,30.12,WSW,248,10.0,11.0,12,0.00,,,0.00,meteohub,2013-02-12 11:36:00,
2013-02-12 06:39:00,30.6,-17.7,30.12,North,0,14.0,14.0,11,0.00,,,0.00,meteohub,2013-02-12 11:39:00,
2013-02-12 06:40:00,30.6,-17.7,30.12,NE,45,16.0,16.0,11,0.00,,,0.00,meteohub,2013-02-12 11:40:00,
2013-02-12 06:43:00,30.6,-17.7,30.12,West,270,15.0,15.0,11,0.00,,,0.00,meteohub,2013-02-12 11:43:00,
2013-02-12 06:45:00,30.6,-17.7,30.12,West,270,5.0,16.0,11,0.00,,,0.00,meteohub,2013-02-12 11:45:00,
2013-02-12 06:46:00,30.6,-17.7,30.12,NE,45,9.0,16.0,11,0.00,,,0.00,meteohub,2013-02-12 11:46:00,
2013-02-12 06:48:00,30.6,-17.7,30.12,NW,315,8.0,16.0,11,0.00,,,0.00,meteohub,2013-02-12 11:48:00,
2013-02-12 06:50:00,30.6,-17.7,30.13,West,270,13.0,16.0,11,0.00,,,0.00,meteohub,2013-02-12 11:50:00,
2013-02-12 06:52:00,30.6,-17.7,30.13,NW,315,12.0,16.0,11,0.00,,,0.00,meteohub,2013-02-12 11:52:00,
2013-02-12 06:55:00,30.6,-19.7,30.13,West,270,11.0,16.0,10,0.00,,,0.00,meteohub,2013-02-12 11:55:00,
2013-02-12 06:56:00,30.6,-19.7,30.13,WSW,248,8.0,16.0,10,0.00,,,0.00,meteohub,2013-02-12 11:56:00,
2013-02-12 06:58:00,30.4,-19.7,30.13,West,270,9.0,16.0,10,0.00,,,0.00,meteohub,2013-02-12 11:58:00,
2013-02-12 07:00:00,30.4,-19.7,30.13,WSW,248,12.0,13.0,10,0.00,,,0.00,meteohub,2013-02-12 12:00:00,
2013-02-12 07:01:00,30.4,-19.7,30.13,WSW,248,12.0,13.0,10,0.00,,,0.00,meteohub,2013-02-12 12:01:00,
2013-02-12 07:02:00,30.4,-19.7,30.13,WSW,248,12.0,13.0,10,0.00,,,0.00,meteohub,2013-02-12 12:02:00,
2013-02-12 07:04:00,30.4,-19.7,30.12,WSW,248,12.0,13.0,10,0.00,,,0.00,meteohub,2013-02-12 12:04:00,
2013-02-12 07:05:00,30.4,-19.7,30.13,WSW,248,12.0,13.0,10,0.00,,,0.00,meteohub,2013-02-12 12:05:00,
2013-02-12 07:06:00,30.4,-19.7,30.13,WSW,248,12.0,13.0,10,0.00,,,0.00,meteohub,2013-02-12 12:06:00,
2013-02-12 07:07:00,30.4,30.4,30.13,NW,315,8.0,13.0,0,0.00,,,0.00,meteohub,2013-02-12 12:07:00,
2013-02-12 07:10:00,30.4,30.4,30.13,South,180,17.0,17.0,0,0.00,,,0.00,meteohub,2013-02-12 12:10:00,
2013-02-12 07:11:00,30.4,30.4,30.13,West,270,4.0,12.0,0,0.00,,,0.00,meteohub,2013-02-12 12:11:00,
2013-02-12 07:12:00,30.4,30.4,30.13,WSW,248,10.0,12.0,0,0.00,,,0.00,meteohub,2013-02-12 12:12:00,
2013-02-12 07:15:00,30.4,30.4,30.13,SW,225,14.0,21.0,0,0.00,,,0.00,meteohub,2013-02-12 12:15:00,
2013-02-12 07:16:00,30.4,30.4,30.13,SW,225,14.0,21.0,0,0.00,,,0.00,meteohub,2013-02-12 12:16:00,
2013-02-12 07:17:00,30.4,30.4,30.13,WSW,248,3.0,21.0,0,0.00,,,0.00,meteohub,2013-02-12 12:17:00,
2013-02-12 07:20:00,30.4,30.4,30.13,NW,315,8.0,21.0,0,0.00,,,0.00,meteohub,2013-02-12 12:20:00,
2013-02-12 07:21:00,30.4,30.4,30.13,West,270,5.0,21.0,0,0.00,,,0.00,meteohub,2013-02-12 12:21:00,
2013-02-12 07:22:00,30.4,30.4,30.13,WSW,248,3.0,21.0,0,0.00,,,0.00,meteohub,2013-02-12 12:22:00,
2013-02-12 07:23:00,30.4,30.4,30.13,WSW,248,3.0,21.0,0,0.00,,,0.00,meteohub,2013-02-12 12:23:00,
2013-02-12 07:26:00,30.2,30.2,30.13,NW,315,7.0,17.0,0,0.00,,,0.00,meteohub,2013-02-12 12:26:00,
2013-02-12 07:27:00,30.2,30.2,30.13,West,270,9.0,17.0,0,0.00,,,0.00,meteohub,2013-02-12 12:27:00,
2013-02-12 07:28:00,30.2,30.2,30.13,East,90,7.0,17.0,0,0.00,,,0.00,meteohub,2013-02-12 12:28:00,
2013-02-12 07:29:00,30.2,30.2,30.13,WSW,248,4.0,17.0,0,0.00,,,0.00,meteohub,2013-02-12 12:29:00,
2013-02-12 07:32:00,30.2,-19.8,30.13,West,270,11.0,14.0,10,0.00,,,0.00,meteohub,2013-02-12 12:32:00,
2013-02-12 07:33:00,30.2,-19.8,30.13,West,270,11.0,14.0,10,0.00,,,0.00,meteohub,2013-02-12 12:33:00,
2013-02-12 07:34:00,30.2,30.2,30.13,NW,315,9.0,14.0,0,0.00,,,0.00,meteohub,2013-02-12 12:34:00,
2013-02-12 07:35:00,30.2,30.2,30.13,North,0,4.0,11.0,0,0.00,,,0.00,meteohub,2013-02-12 12:35:00,
2013-02-12 07:38:00,30.2,30.2,30.14,NW,315,9.0,11.0,0,0.00,,,0.00,meteohub,2013-02-12 12:38:00,
2013-02-12 07:40:00,30.2,30.2,30.14,North,0,4.0,11.0,0,0.00,,,0.00,meteohub,2013-02-12 12:40:00,
2013-02-12 07:43:00,30.0,30.0,30.13,West,270,12.0,13.0,0,0.00,,,0.00,meteohub,2013-02-12 12:43:00,
2013-02-12 07:44:00,30.0,30.0,30.14,North,0,10.0,13.0,0,0.00,,,0.00,meteohub,2013-02-12 12:44:00,
2013-02-12 07:45:00,30.0,30.0,30.14,North,0,10.0,13.0,0,0.00,,,0.00,meteohub,2013-02-12 12:45:00,
2013-02-12 07:49:00,30.0,30.0,30.14,West,270,6.0,15.0,0,0.00,,,0.00,meteohub,2013-02-12 12:49:00,
2013-02-12 07:50:00,30.0,30.0,30.14,West,270,7.0,15.0,0,0.00,,,0.00,meteohub,2013-02-12 12:50:00,
2013-02-12 07:51:00,30.0,30.0,30.14,NE,45,15.0,15.0,0,0.00,,,0.00,meteohub,2013-02-12 12:51:00,
2013-02-12 07:54:00,30.0,30.0,30.14,NW,315,13.0,15.0,0,0.00,,,0.00,meteohub,2013-02-12 12:54:00,
2013-02-12 07:55:00,30.0,30.0,30.14,West,270,5.0,15.0,0,0.00,,,0.00,meteohub,2013-02-12 12:55:00,
2013-02-12 07:56:00,30.0,30.0,30.14,WSW,248,7.0,15.0,0,0.00,,,0.00,meteohub,2013-02-12 12:56:00,
2013-02-12 08:00:00,29.8,29.8,30.14,NW,315,10.0,15.0,0,0.00,,,0.00,meteohub,2013-02-12 13:00:00,
2013-02-12 08:01:00,29.8,29.8,30.14,NW,315,13.0,15.0,0,0.00,,,0.00,meteohub,2013-02-12 13:01:00,
2013-02-12 08:06:00,29.8,-20.2,30.15,West,270,8.0,15.0,10,0.00,,,0.00,meteohub,2013-02-12 13:06:00,
2013-02-12 08:07:00,29.8,-20.2,30.15,West,270,4.0,15.0,10,0.00,,,0.00,meteohub,2013-02-12 13:07:00,
2013-02-12 08:11:00,29.7,-20.4,30.15,West,270,11.0,14.0,10,0.00,,,0.00,meteohub,2013-02-12 13:11:00,
2013-02-12 08:12:00,29.8,-20.2,30.15,NW,315,8.0,14.0,10,0.00,,,0.00,meteohub,2013-02-12 13:12:00,
2013-02-12 08:16:00,29.7,29.7,30.15,NW,315,11.0,15.0,0,0.00,,,0.00,meteohub,2013-02-12 13:16:00,
2013-02-12 08:17:00,29.7,29.7,30.15,West,270,4.0,15.0,0,0.00,,,0.00,meteohub,2013-02-12 13:17:00,
2013-02-12 08:18:00,29.7,29.7,30.15,West,270,17.0,17.0,0,0.00,,,0.00,meteohub,2013-02-12 13:18:00,
2013-02-12 08:22:00,29.7,29.7,30.16,North,0,16.0,17.0,0,0.00,,,0.00,meteohub,2013-02-12 13:22:00,
2013-02-12 08:23:00,29.7,29.7,30.16,WSW,248,13.0,17.0,0,0.00,,,0.00,meteohub,2013-02-12 13:23:00,
2013-02-12 08:24:00,29.7,29.7,30.16,WSW,248,8.0,17.0,0,0.00,,,0.00,meteohub,2013-02-12 13:24:00,
2013-02-12 08:27:00,29.7,29.7,30.16,West,270,13.0,17.0,0,0.00,,,0.00,meteohub,2013-02-12 13:27:00,
2013-02-12 08:29:00,29.7,29.7,30.15,North,0,8.0,17.0,0,0.00,,,0.00,meteohub,2013-02-12 13:29:00,
2013-02-12 08:30:00,29.7,-20.4,30.15,West,270,11.0,17.0,10,0.00,,,0.00,meteohub,2013-02-12 13:30:00,
2013-02-12 08:33:00,29.7,-20.4,30.16,West,270,11.0,17.0,10,0.00,,,0.00,meteohub,2013-02-12 13:33:00,
2013-02-12 08:34:00,29.7,-20.4,30.15,West,270,11.0,17.0,10,0.00,,,0.00,meteohub,2013-02-12 13:34:00,
2013-02-12 08:36:00,29.7,29.7,30.16,WSW,248,8.0,16.0,0,0.00,,,0.00,meteohub,2013-02-12 13:36:00,
2013-02-12 08:38:00,29.7,29.7,30.15,West,270,15.0,16.0,0,0.00,,,0.00,meteohub,2013-02-12 13:38:00,
2013-02-12 08:39:00,29.7,29.7,30.15,NW,315,12.0,16.0,0,0.00,,,0.00,meteohub,2013-02-12 13:39:00,
2013-02-12 08:41:00,29.7,29.7,30.16,WSW,248,12.0,14.0,0,0.00,,,0.00,meteohub,2013-02-12 13:41:00,
2013-02-12 08:42:00,29.7,29.7,30.16,NW,315,9.0,14.0,0,0.00,,,0.00,meteohub,2013-02-12 13:42:00,
2013-02-12 08:43:00,29.7,29.7,30.16,WSW,248,5.0,14.0,0,0.00,,,0.00,meteohub,2013-02-12 13:43:00,
2013-02-12 08:44:00,29.7,29.7,30.15,West,270,6.0,14.0,0,0.00,,,0.00,meteohub,2013-02-12 13:44:00,
2013-02-12 08:46:00,29.7,29.7,30.15,NW,315,11.0,15.0,0,0.00,,,0.00,meteohub,2013-02-12 13:46:00,
2013-02-12 08:48:00,29.7,29.7,30.16,West,270,9.0,15.0,0,0.00,,,0.00,meteohub,2013-02-12 13:48:00,
2013-02-12 08:49:00,29.7,29.7,30.16,NW,315,9.0,15.0,0,0.00,,,0.00,meteohub,2013-02-12 13:49:00,
2013-02-12 08:51:00,29.7,29.7,30.16,South,180,4.0,17.0,0,0.00,,,0.00,meteohub,2013-02-12 13:51:00,
2013-02-12 08:54:00,29.7,29.7,30.16,WSW,248,6.0,17.0,0,0.00,,,0.00,meteohub,2013-02-12 13:54:00,
2013-02-12 08:55:00,29.7,29.7,30.16,WSW,248,11.0,17.0,0,0.00,,,0.00,meteohub,2013-02-12 13:55:00,
2013-02-12 08:57:00,29.7,-20.4,30.16,WSW,248,8.0,17.0,10,0.00,,,0.00,meteohub,2013-02-12 13:57:00,
2013-02-12 08:59:00,29.7,-20.4,30.16,West,270,9.0,17.0,10,0.00,,,0.00,meteohub,2013-02-12 13:59:00,
2013-02-12 09:00:00,29.7,-20.4,30.16,West,270,9.0,17.0,10,0.00,,,0.00,meteohub,2013-02-12 14:00:00,
2013-02-12 09:03:00,29.5,29.5,30.16,NW,315,8.0,17.0,0,0.00,,,0.00,meteohub,2013-02-12 14:03:00,
2013-02-12 09:05:00,29.5,29.5,30.17,NE,45,13.0,17.0,0,0.00,,,0.00,meteohub,2013-02-12 14:05:00,
2013-02-12 09:06:00,29.5,29.5,30.17,WSW,248,8.0,15.0,0,0.00,,,0.00,meteohub,2013-02-12 14:06:00,
2013-02-12 09:09:00,29.3,29.3,30.17,West,270,8.0,15.0,0,0.00,,,0.00,meteohub,2013-02-12 14:09:00,
2013-02-12 09:10:00,29.3,29.3,30.17,NW,315,11.0,15.0,0,0.00,,,0.00,meteohub,2013-02-12 14:10:00,
2013-02-12 09:11:00,29.3,29.3,30.17,NW,315,11.0,15.0,0,0.00,,,0.00,meteohub,2013-02-12 14:11:00,
2013-02-12 09:12:00,29.3,29.3,30.17,West,270,18.0,18.0,0,0.00,,,0.00,meteohub,2013-02-12 14:12:00,
2013-02-12 09:14:00,29.1,29.1,30.17,NW,315,14.0,15.0,0,0.00,,,0.00,meteohub,2013-02-12 14:14:00,
2013-02-12 09:15:00,29.1,29.1,30.17,West,270,16.0,18.0,0,0.00,,,0.00,meteohub,2013-02-12 14:15:00,
2013-02-12 09:17:00,29.1,29.1,30.16,WNW,293,16.0,18.0,0,0.00,,,0.00,meteohub,2013-02-12 14:17:00,
2013-02-12 09:21:00,29.1,29.1,30.17,NW,315,12.0,18.0,0,0.00,,,0.00,meteohub,2013-02-12 14:21:00,
2013-02-12 09:22:00,29.1,29.1,30.17,West,270,4.0,18.0,0,0.00,,,0.00,meteohub,2013-02-12 14:22:00,
2013-02-12 09:26:00,29.1,29.1,30.17,NW,315,7.0,18.0,0,0.00,,,0.00,meteohub,2013-02-12 14:26:00,
2013-02-12 09:27:00,29.1,29.1,30.17,NW,315,14.0,18.0,0,0.00,,,0.00,meteohub,2013-02-12 14:27:00,
2013-02-12 09:29:00,29.1,29.1,30.17,West,270,8.0,18.0,0,0.00,,,0.00,meteohub,2013-02-12 14:29:00,
2013-02-12 09:32:00,29.1,29.1,30.17,NW,315,10.0,17.0,0,0.00,,,0.00,meteohub,2013-02-12 14:32:00,
2013-02-12 09:33:00,29.1,29.1,30.17,WSW,248,6.0,17.0,0,0.00,,,0.00,meteohub,2013-02-12 14:33:00,
2013-02-12 09:35:00,29.1,29.1,30.17,NW,315,7.0,17.0,0,0.00,,,0.00,meteohub,2013-02-12 14:35:00,
2013-02-12 09:38:00,29.1,29.1,30.18,West,270,6.0,17.0,0,0.00,,,0.00,meteohub,2013-02-12 14:38:00,
2013-02-12 09:39:00,29.1,29.1,30.18,NW,315,9.0,17.0,0,0.00,,,0.00,meteohub,2013-02-12 14:39:00,
2013-02-12 09:41:00,29.1,29.1,30.18,North,0,11.0,15.0,0,0.00,,,0.00,meteohub,2013-02-12 14:41:00,
2013-02-12 09:43:00,29.1,29.1,30.18,NW,315,8.0,15.0,0,0.00,,,0.00,meteohub,2013-02-12 14:43:00,
2013-02-12 09:44:00,29.1,29.1,30.18,South,180,5.0,15.0,0,0.00,,,0.00,meteohub,2013-02-12 14:44:00,
2013-02-12 09:46:00,29.1,29.1,30.19,South,180,5.0,13.0,0,0.00,,,0.00,meteohub,2013-02-12 14:46:00,
2013-02-12 09:49:00,28.9,28.9,30.18,NW,315,9.0,13.0,0,0.00,,,0.00,meteohub,2013-02-12 14:49:00,
2013-02-12 09:52:00,29.1,29.1,30.18,West,270,4.0,13.0,0,0.00,,,0.00,meteohub,2013-02-12 14:52:00,
2013-02-12 09:53:00,29.1,29.1,30.18,West,270,4.0,13.0,0,0.00,,,0.00,meteohub,2013-02-12 14:53:00,
2013-02-12 09:54:00,29.1,29.1,30.19,NW,315,8.0,13.0,0,0.00,,,0.00,meteohub,2013-02-12 14:54:00,
2013-02-12 09:55:00,29.1,29.1,30.19,West,270,10.0,13.0,0,0.00,,,0.00,meteohub,2013-02-12 14:55:00,
2013-02-12 09:58:00,29.1,29.1,30.18,WSW,248,4.0,13.0,0,0.00,,,0.00,meteohub,2013-02-12 14:58:00,
2013-02-12 10:00:00,29.1,29.1,30.18,NW,315,4.0,11.0,0,0.00,,,0.00,meteohub,2013-02-12 15:00:00,
2013-02-12 10:02:00,29.1,29.1,30.18,West,270,4.0,11.0,0,0.00,,,0.00,meteohub,2013-02-12 15:02:00,
2013-02-12 10:03:00,29.1,29.1,30.19,WSW,248,8.0,11.0,0,0.00,,,0.00,meteohub,2013-02-12 15:03:00,
2013-02-12 10:04:00,29.1,29.1,30.18,West,270,9.0,11.0,0,0.00,,,0.00,meteohub,2013-02-12 15:04:00,
2013-02-12 10:05:00,29.3,29.3,30.18,West,270,5.0,10.0,0,0.00,,,0.00,meteohub,2013-02-12 15:05:00,
2013-02-12 10:07:00,29.3,29.3,30.18,West,270,11.0,11.0,0,0.00,,,0.00,meteohub,2013-02-12 15:07:00,
2013-02-12 10:08:00,29.3,29.3,30.18,WSW,248,4.0,10.0,0,0.00,,,0.00,meteohub,2013-02-12 15:08:00,
2013-02-12 10:09:00,29.3,29.3,30.18,West,270,7.0,10.0,0,0.00,,,0.00,meteohub,2013-02-12 15:09:00,
2013-02-12 10:11:00,29.3,29.3,30.18,South,180,11.0,11.0,0,0.00,,,0.00,meteohub,2013-02-12 15:11:00,
2013-02-12 10:12:00,29.3,29.3,30.19,West,270,8.0,11.0,0,0.00,,,0.00,meteohub,2013-02-12 15:12:00,
2013-02-12 10:13:00,29.3,29.3,30.18,NW,315,21.0,21.0,0,0.00,,,0.00,meteohub,2013-02-12 15:13:00,
2013-02-12 10:15:00,29.3,29.3,30.18,NW,315,19.0,21.0,0,0.00,,,0.00,meteohub,2013-02-12 15:15:00,
2013-02-12 10:16:00,29.3,29.3,30.19,NW,315,8.0,21.0,0,0.00,,,0.00,meteohub,2013-02-12 15:16:00,
2013-02-12 10:18:00,29.3,29.3,30.18,NW,315,4.0,21.0,0,0.00,,,0.00,meteohub,2013-02-12 15:18:00,
2013-02-12 10:19:00,29.3,29.3,30.19,West,270,6.0,21.0,0,0.00,,,0.00,meteohub,2013-02-12 15:19:00,
2013-02-12 10:20:00,29.3,29.3,30.19,West,270,4.0,21.0,0,0.00,,,0.00,meteohub,2013-02-12 15:20:00,
2013-02-12 10:21:00,29.3,29.3,30.19,East,90,8.0,21.0,0,0.00,,,0.00,meteohub,2013-02-12 15:21:00,
2013-02-12 10:23:00,29.5,29.5,30.19,West,270,11.0,21.0,0,0.00,,,0.00,meteohub,2013-02-12 15:23:00,
2013-02-12 10:24:00,29.5,29.5,30.19,North,0,10.0,21.0,0,0.00,,,0.00,meteohub,2013-02-12 15:24:00,
2013-02-12 10:26:00,29.3,29.3,30.19,West,270,11.0,21.0,0,0.00,,,0.00,meteohub,2013-02-12 15:26:00,
2013-02-12 10:28:00,29.3,29.3,30.19,NW,315,12.0,21.0,0,0.00,,,0.00,meteohub,2013-02-12 15:28:00,
2013-02-12 10:30:00,29.3,29.3,30.19,WSW,248,7.0,19.0,0,0.00,,,0.00,meteohub,2013-02-12 15:30:00,
2013-02-12 10:31:00,29.3,29.3,30.19,WSW,248,7.0,19.0,0,0.00,,,0.00,meteohub,2013-02-12 15:31:00,
2013-02-12 10:34:00,29.5,29.5,30.19,West,270,9.0,19.0,0,0.00,,,0.00,meteohub,2013-02-12 15:34:00,
2013-02-12 10:36:00,29.3,29.3,30.19,WSW,248,12.0,13.0,0,0.00,,,0.00,meteohub,2013-02-12 15:36:00,
2013-02-12 10:40:00,29.3,29.3,30.19,NW,315,8.0,13.0,0,0.00,,,0.00,meteohub,2013-02-12 15:40:00,
2013-02-12 10:42:00,29.5,29.5,30.19,NW,315,11.0,13.0,0,0.00,,,0.00,meteohub,2013-02-12 15:42:00,
2013-02-12 10:45:00,29.3,29.3,30.19,WSW,248,10.0,12.0,0,0.00,,,0.00,meteohub,2013-02-12 15:45:00,
2013-02-12 10:47:00,29.3,29.3,30.18,NW,315,11.0,12.0,0,0.00,,,0.00,meteohub,2013-02-12 15:47:00,
2013-02-12 10:51:00,29.3,29.3,30.19,West,270,11.0,12.0,0,0.00,,,0.00,meteohub,2013-02-12 15:51:00,
2013-02-12 10:52:00,29.3,29.3,30.19,NW,315,4.0,12.0,0,0.00,,,0.00,meteohub,2013-02-12 15:52:00,
2013-02-12 10:57:00,29.3,29.3,30.19,NW,315,4.0,15.0,0,0.00,,,0.00,meteohub,2013-02-12 15:57:00,
2013-02-12 10:58:00,29.5,29.5,30.19,NW,315,8.0,15.0,0,0.00,,,0.00,meteohub,2013-02-12 15:58:00,
2013-02-12 11:03:00,29.5,29.5,30.19,WSW,248,5.0,15.0,0,0.00,,,0.00,meteohub,2013-02-12 16:03:00,
2013-02-12 11:04:00,29.5,29.5,30.19,WSW,248,11.0,15.0,0,0.00,,,0.00,meteohub,2013-02-12 16:04:00,
2013-02-12 11:05:00,29.5,29.5,30.19,WSW,248,11.0,15.0,0,0.00,,,0.00,meteohub,2013-02-12 16:05:00,
2013-02-12 11:09:00,29.7,29.7,30.19,NW,315,16.0,16.0,0,0.00,,,0.00,meteohub,2013-02-12 16:09:00,
2013-02-12 11:10:00,29.5,29.5,30.19,NW,315,10.0,16.0,0,0.00,,,0.00,meteohub,2013-02-12 16:10:00,
2013-02-12 11:11:00,29.5,29.5,30.20,West,270,8.0,16.0,0,0.00,,,0.00,meteohub,2013-02-12 16:11:00,
2013-02-12 11:14:00,29.7,29.7,30.19,NW,315,12.0,16.0,0,0.00,,,0.00,meteohub,2013-02-12 16:14:00,
2013-02-12 11:15:00,29.7,29.7,30.19,WNW,293,10.0,16.0,0,0.00,,,0.00,meteohub,2013-02-12 16:15:00,
2013-02-12 11:16:00,29.7,29.7,30.20,West,270,12.0,16.0,0,0.00,,,0.00,meteohub,2013-02-12 16:16:00,
2013-02-12 11:19:00,29.7,29.7,30.19,West,270,4.0,16.0,0,0.00,,,0.00,meteohub,2013-02-12 16:19:00,
2013-02-12 11:20:00,29.8,29.8,30.19,West,270,3.0,16.0,0,0.00,,,0.00,meteohub,2013-02-12 16:20:00,
2013-02-12 11:21:00,29.8,29.8,30.19,WNW,293,7.0,16.0,0,0.00,,,0.00,meteohub,2013-02-12 16:21:00,
2013-02-12 11:22:00,29.8,29.8,30.19,WSW,248,5.0,16.0,0,0.00,,,0.00,meteohub,2013-02-12 16:22:00,
2013-02-12 11:24:00,30.0,30.0,30.19,North,0,12.0,16.0,0,0.00,,,0.00,meteohub,2013-02-12 16:24:00,
2013-02-12 11:25:00,30.0,30.0,30.19,North,0,11.0,12.0,0,0.00,,,0.00,meteohub,2013-02-12 16:25:00,
2013-02-12 11:26:00,30.0,30.0,30.19,WSW,248,8.0,12.0,0,0.00,,,0.00,meteohub,2013-02-12 16:26:00,
2013-02-12 11:28:00,30.0,30.0,30.19,West,270,10.0,12.0,0,0.00,,,0.00,meteohub,2013-02-12 16:28:00,
2013-02-12 11:30:00,30.2,30.2,30.19,NW,315,4.0,12.0,0,0.00,,,0.00,meteohub,2013-02-12 16:30:00,
2013-02-12 11:31:00,30.4,30.4,30.19,West,270,4.0,12.0,0,0.00,,,0.00,meteohub,2013-02-12 16:31:00,
2013-02-12 11:32:00,30.4,30.4,30.19,WSW,248,3.0,12.0,0,0.00,,,0.00,meteohub,2013-02-12 16:32:00,
2013-02-12 11:33:00,30.4,30.4,30.19,WSW,248,3.0,12.0,0,0.00,,,0.00,meteohub,2013-02-12 16:33:00,
2013-02-12 11:36:00,30.2,30.2,30.19,North,0,9.0,12.0,0,0.00,,,0.00,meteohub,2013-02-12 16:36:00,
2013-02-12 11:37:00,30.2,30.2,30.19,NW,315,12.0,12.0,0,0.00,,,0.00,meteohub,2013-02-12 16:37:00,
2013-02-12 11:38:00,30.0,30.0,30.19,NW,315,15.0,15.0,0,0.00,,,0.00,meteohub,2013-02-12 16:38:00,
2013-02-12 11:42:00,30.2,30.2,30.19,NW,315,9.0,15.0,0,0.00,,,0.00,meteohub,2013-02-12 16:42:00,
2013-02-12 11:43:00,30.2,30.2,30.19,NW,315,9.0,15.0,0,0.00,,,0.00,meteohub,2013-02-12 16:43:00,
2013-02-12 11:47:00,30.4,30.4,30.19,NE,45,9.0,15.0,0,0.00,,,0.00,meteohub,2013-02-12 16:47:00,
2013-02-12 11:48:00,30.4,30.4,30.19,NW,315,10.0,15.0,0,0.00,,,0.00,meteohub,2013-02-12 16:48:00,
2013-02-12 11:49:00,30.4,30.4,30.19,West,270,11.0,15.0,0,0.00,,,0.00,meteohub,2013-02-12 16:49:00,
2013-02-12 11:53:00,30.4,30.4,30.19,WSW,248,8.0,15.0,0,0.00,,,0.00,meteohub,2013-02-12 16:53:00,
2013-02-12 11:54:00,30.4,30.4,30.19,West,270,11.0,15.0,0,0.00,,,0.00,meteohub,2013-02-12 16:54:00,
2013-02-12 11:58:00,30.6,30.6,30.19,West,270,10.0,17.0,0,0.00,,,0.00,meteohub,2013-02-12 16:58:00,
2013-02-12 11:59:00,30.6,30.6,30.19,WSW,248,8.0,17.0,0,0.00,,,0.00,meteohub,2013-02-12 16:59:00,
2013-02-12 12:00:00,30.6,30.6,30.19,West,270,13.0,17.0,0,0.00,,,0.00,meteohub,2013-02-12 17:00:00,
2013-02-12 12:03:00,30.6,30.6,30.19,West,270,6.0,17.0,0,0.00,,,0.00,meteohub,2013-02-12 17:03:00,
2013-02-12 12:04:00,30.6,30.6,30.19,West,270,6.0,17.0,0,0.00,,,0.00,meteohub,2013-02-12 17:04:00,
2013-02-12 12:05:00,30.6,30.6,30.19,West,270,8.0,17.0,0,0.00,,,0.00,meteohub,2013-02-12 17:05:00,
2013-02-12 12:09:00,30.7,30.7,30.18,West,270,9.0,17.0,0,0.00,,,0.00,meteohub,2013-02-12 17:09:00,
2013-02-12 12:10:00,30.7,30.7,30.19,NW,315,8.0,13.0,0,0.00,,,0.00,meteohub,2013-02-12 17:10:00,
2013-02-12 12:14:00,30.6,30.6,30.19,West,270,15.0,15.0,0,0.00,,,0.00,meteohub,2013-02-12 17:14:00,
2013-02-12 12:15:00,30.6,30.6,30.19,WSW,248,9.0,15.0,0,0.00,,,0.00,meteohub,2013-02-12 17:15:00,
2013-02-12 12:17:00,30.6,30.6,30.19,WSW,248,12.0,15.0,0,0.00,,,0.00,meteohub,2013-02-12 17:17:00,
2013-02-12 12:20:00,30.6,30.6,30.19,NW,315,8.0,15.0,0,0.00,,,0.00,meteohub,2013-02-12 17:20:00,
2013-02-12 12:21:00,30.6,30.6,30.19,NW,315,8.0,15.0,0,0.00,,,0.00,meteohub,2013-02-12 17:21:00,
2013-02-12 12:23:00,30.7,30.7,30.18,NW,315,11.0,15.0,0,0.00,,,0.00,meteohub,2013-02-12 17:23:00,
2013-02-12 12:25:00,30.7,30.7,30.18,NW,315,6.0,15.0,0,0.00,,,0.00,meteohub,2013-02-12 17:25:00,
2013-02-12 12:26:00,30.9,30.9,30.17,West,270,10.0,15.0,0,0.00,,,0.00,meteohub,2013-02-12 17:26:00,
2013-02-12 12:27:00,31.1,31.1,30.18,NW,315,4.0,15.0,0,0.00,,,0.00,meteohub,2013-02-12 17:27:00,
2013-02-12 12:28:00,31.1,31.1,30.18,West,270,9.0,15.0,0,0.00,,,0.00,meteohub,2013-02-12 17:28:00,
2013-02-12 12:30:00,31.3,31.3,30.18,West,270,6.0,14.0,0,0.00,,,0.00,meteohub,2013-02-12 17:30:00,
2013-02-12 12:31:00,31.3,31.3,30.18,WSW,248,7.0,14.0,0,0.00,,,0.00,meteohub,2013-02-12 17:31:00,
2013-02-12 12:32:00,31.3,31.3,30.17,WNW,293,8.0,14.0,0,0.00,,,0.00,meteohub,2013-02-12 17:32:00,
2013-02-12 12:35:00,31.5,31.5,30.17,West,270,9.0,11.0,0,0.00,,,0.00,meteohub,2013-02-12 17:35:00,
2013-02-12 12:37:00,31.5,31.5,30.18,West,270,8.0,11.0,0,0.00,,,0.00,meteohub,2013-02-12 17:37:00,
2013-02-12 12:38:00,31.3,31.3,30.17,NE,45,11.0,11.0,0,0.00,,,0.00,meteohub,2013-02-12 17:38:00,
2013-02-12 12:41:00,31.3,31.3,30.17,NW,315,12.0,12.0,0,0.00,,,0.00,meteohub,2013-02-12 17:41:00,
2013-02-12 12:42:00,31.3,31.3,30.17,West,270,5.0,11.0,0,0.00,,,0.00,meteohub,2013-02-12 17:42:00,
2013-02-12 12:44:00,31.3,31.3,30.17,North,0,5.0,11.0,0,0.00,,,0.00,meteohub,2013-02-12 17:44:00,
2013-02-12 12:46:00,31.5,31.5,30.17,WSW,248,9.0,12.0,0,0.00,,,0.00,meteohub,2013-02-12 17:46:00,
2013-02-12 12:49:00,31.8,31.8,30.17,NW,315,8.0,12.0,0,0.00,,,0.00,meteohub,2013-02-12 17:49:00,
2013-02-12 12:51:00,31.8,31.8,30.17,South,180,12.0,12.0,0,0.00,,,0.00,meteohub,2013-02-12 17:51:00,
2013-02-12 12:54:00,32.2,32.2,30.16,WSW,248,9.0,12.0,0,0.00,,,0.00,meteohub,2013-02-12 17:54:00,
2013-02-12 12:56:00,32.4,32.4,30.16,West,270,10.0,12.0,0,0.00,,,0.00,meteohub,2013-02-12 17:56:00,
2013-02-12 12:57:00,32.4,32.4,30.16,WSW,248,5.0,12.0,0,0.00,,,0.00,meteohub,2013-02-12 17:57:00,
2013-02-12 13:00:00,32.5,32.5,30.16,West,270,7.0,12.0,0,0.00,,,0.00,meteohub,2013-02-12 18:00:00,
2013-02-12 13:01:00,32.5,32.5,30.16,West,270,7.0,12.0,0,0.00,,,0.00,meteohub,2013-02-12 18:01:00,
2013-02-12 13:02:00,32.5,32.5,30.16,NW,315,14.0,14.0,0,0.00,,,0.00,meteohub,2013-02-12 18:02:00,
2013-02-12 13:05:00,32.5,32.5,30.16,North,0,9.0,12.0,0,0.00,,,0.00,meteohub,2013-02-12 18:05:00,
2013-02-12 13:06:00,32.5,32.5,30.16,NW,315,6.0,14.0,0,0.00,,,0.00,meteohub,2013-02-12 18:06:00,
2013-02-12 13:07:00,32.7,32.7,30.15,West,270,8.0,14.0,0,0.00,,,0.00,meteohub,2013-02-12 18:07:00,
2013-02-12 13:10:00,32.7,32.7,30.15,NW,315,12.0,14.0,0,0.00,,,0.00,meteohub,2013-02-12 18:10:00,
2013-02-12 13:12:00,32.9,32.9,30.16,West,270,10.0,14.0,0,0.00,,,0.00,meteohub,2013-02-12 18:12:00,
2013-02-12 13:13:00,32.9,32.9,30.15,NW,315,11.0,14.0,0,0.00,,,0.00,meteohub,2013-02-12 18:13:00,
2013-02-12 13:14:00,32.9,32.9,30.16,West,270,10.0,14.0,0,0.00,,,0.00,meteohub,2013-02-12 18:14:00,
2013-02-12 13:15:00,32.9,32.9,30.14,West,270,10.0,14.0,0,0.00,,,0.00,meteohub,2013-02-12 18:15:00,
2013-02-12 13:17:00,32.7,32.7,30.15,WSW,248,11.0,14.0,0,0.00,,,0.00,meteohub,2013-02-12 18:17:00,
2013-02-12 13:19:00,32.7,32.7,30.14,NW,315,4.0,14.0,0,0.00,,,0.00,meteohub,2013-02-12 18:19:00,
2013-02-12 13:20:00,32.9,32.9,30.14,West,270,9.0,12.0,0,0.00,,,0.00,meteohub,2013-02-12 18:20:00,
2013-02-12 13:22:00,33.1,33.1,30.14,NW,315,8.0,12.0,0,0.00,,,0.00,meteohub,2013-02-12 18:22:00,
2013-02-12 13:24:00,33.8,33.8,30.14,West,270,3.0,12.0,0,0.00,,,0.00,meteohub,2013-02-12 18:24:00,
2013-02-12 13:25:00,33.8,33.8,30.14,NW,315,7.0,12.0,0,0.00,,,0.00,meteohub,2013-02-12 18:25:00,
2013-02-12 13:26:00,34.0,34.0,30.14,NW,315,7.0,12.0,0,0.00,,,0.00,meteohub,2013-02-12 18:26:00,
2013-02-12 13:27:00,34.0,34.0,30.14,NW,315,12.0,12.0,0,0.00,,,0.00,meteohub,2013-02-12 18:27:00,
2013-02-12 13:29:00,33.8,33.8,30.14,West,270,8.0,12.0,0,0.00,,,0.00,meteohub,2013-02-12 18:29:00,
2013-02-12 13:30:00,33.8,33.8,30.14,WSW,248,9.0,12.0,0,0.00,,,0.00,meteohub,2013-02-12 18:30:00,
2013-02-12 13:32:00,33.6,33.6,30.15,North,0,14.0,14.0,0,0.00,,,0.00,meteohub,2013-02-12 18:32:00,
2013-02-12 13:33:00,33.4,33.4,30.15,WSW,248,8.0,12.0,0,0.00,,,0.00,meteohub,2013-02-12 18:33:00,
2013-02-12 13:35:00,33.3,33.3,30.15,South,180,8.0,12.0,0,0.00,,,0.00,meteohub,2013-02-12 18:35:00,
2013-02-12 13:37:00,33.1,33.1,30.16,NW,315,5.0,14.0,0,0.00,,,0.00,meteohub,2013-02-12 18:37:00,
2013-02-12 13:38:00,33.3,33.3,30.15,West,270,8.0,14.0,0,0.00,,,0.00,meteohub,2013-02-12 18:38:00,
2013-02-12 13:40:00,33.8,33.8,30.15,NW,315,8.0,14.0,0,0.00,,,0.00,meteohub,2013-02-12 18:40:00,
2013-02-12 13:41:00,33.8,33.8,30.15,NW,315,8.0,14.0,0,0.00,,,0.00,meteohub,2013-02-12 18:41:00,
2013-02-12 13:42:00,34.7,34.7,30.15,West,270,4.0,14.0,0,0.00,,,0.00,meteohub,2013-02-12 18:42:00,
2013-02-12 13:44:00,36.0,36.0,30.15,NW,315,9.0,14.0,0,0.00,,,0.00,meteohub,2013-02-12 18:44:00,
2013-02-12 13:46:00,36.1,36.1,30.15,WSW,248,8.0,14.0,0,0.00,,,0.00,meteohub,2013-02-12 18:46:00,
2013-02-12 13:47:00,36.3,36.3,30.15,West,270,4.0,14.0,0,0.00,,,0.00,meteohub,2013-02-12 18:47:00,
2013-02-12 13:50:00,37.4,37.4,30.14,South,180,13.0,14.0,0,0.00,,,0.00,meteohub,2013-02-12 18:50:00,
2013-02-12 13:51:00,37.2,37.2,30.14,West,270,14.0,14.0,0,0.00,,,0.00,meteohub,2013-02-12 18:51:00,
2013-02-12 13:52:00,37.2,37.2,30.14,West,270,14.0,14.0,0,0.00,,,0.00,meteohub,2013-02-12 18:52:00,
2013-02-12 13:55:00,37.2,37.2,30.14,West,270,7.0,14.0,0,0.00,,,0.00,meteohub,2013-02-12 18:55:00,
2013-02-12 13:56:00,37.4,37.4,30.14,West,270,5.0,14.0,0,0.00,,,0.00,meteohub,2013-02-12 18:56:00,
2013-02-12 13:57:00,37.9,37.9,30.13,North,0,3.0,14.0,0,0.00,,,0.00,meteohub,2013-02-12 18:57:00,
2013-02-12 13:58:00,38.3,38.3,30.13,NW,315,9.0,14.0,0,0.00,,,0.00,meteohub,2013-02-12 18:58:00,
2013-02-12 14:00:00,38.7,38.7,30.12,NW,315,8.0,14.0,0,0.00,,,0.00,meteohub,2013-02-12 19:00:00,
2013-02-12 14:02:00,38.7,38.7,30.12,West,270,8.0,14.0,0,0.00,,,0.00,meteohub,2013-02-12 19:02:00,
2013-02-12 14:03:00,38.7,38.7,30.12,NW,315,8.0,14.0,0,0.00,,,0.00,meteohub,2013-02-12 19:03:00,
2013-02-12 14:05:00,37.6,37.6,30.11,North,0,9.0,14.0,0,0.00,,,0.00,meteohub,2013-02-12 19:05:00,
2013-02-12 14:07:00,37.6,37.6,30.11,West,270,7.0,14.0,0,0.00,,,0.00,meteohub,2013-02-12 19:07:00,
2013-02-12 14:08:00,37.8,37.8,30.11,North,0,6.0,14.0,0,0.00,,,0.00,meteohub,2013-02-12 19:08:00,
2013-02-12 14:11:00,37.4,37.4,30.10,NE,45,8.0,11.0,0,0.00,,,0.00,meteohub,2013-02-12 19:11:00,
2013-02-12 14:12:00,37.2,37.2,30.10,NW,315,13.0,13.0,0,0.00,,,0.00,meteohub,2013-02-12 19:12:00,
2013-02-12 14:16:00,37.0,37.0,30.10,NE,45,8.0,13.0,0,0.00,,,0.00,meteohub,2013-02-12 19:16:00,
2013-02-12 14:17:00,37.2,37.2,30.10,NW,315,8.0,13.0,0,0.00,,,0.00,meteohub,2013-02-12 19:17:00,
2013-02-12 14:21:00,37.8,37.8,30.11,NW,315,6.0,13.0,0,0.00,,,0.00,meteohub,2013-02-12 19:21:00,
2013-02-12 14:22:00,37.6,37.6,30.10,East,90,8.0,13.0,0,0.00,,,0.00,meteohub,2013-02-12 19:22:00,
2013-02-12 14:27:00,38.1,38.1,30.10,North,0,8.0,13.0,0,0.00,,,0.00,meteohub,2013-02-12 19:27:00,
2013-02-12 14:28:00,38.1,38.1,30.10,West,270,5.0,13.0,0,0.00,,,0.00,meteohub,2013-02-12 19:28:00,
2013-02-12 14:32:00,37.9,37.9,30.10,NW,315,8.0,11.0,0,0.00,,,0.00,meteohub,2013-02-12 19:32:00,
2013-02-12 14:33:00,37.9,37.9,30.09,North,0,7.0,11.0,0,0.00,,,0.00,meteohub,2013-02-12 19:33:00,
2013-02-12 14:35:00,38.1,38.1,30.09,NW,315,7.0,11.0,0,0.00,,,0.00,meteohub,2013-02-12 19:35:00,
2013-02-12 14:38:00,37.6,37.6,30.09,NW,315,8.0,11.0,0,0.00,,,0.00,meteohub,2013-02-12 19:38:00,
2013-02-12 14:39:00,37.4,37.4,30.09,NW,315,7.0,11.0,0,0.00,,,0.00,meteohub,2013-02-12 19:39:00,
2013-02-12 14:40:00,37.4,37.4,30.09,North,0,3.0,11.0,0,0.00,,,0.00,meteohub,2013-02-12 19:40:00,
2013-02-12 14:44:00,38.1,38.1,30.08,NW,315,7.0,11.0,0,0.00,,,0.00,meteohub,2013-02-12 19:44:00,
2013-02-12 14:45:00,38.5,38.5,30.08,West,270,4.0,11.0,0,0.00,,,0.00,meteohub,2013-02-12 19:45:00,
2013-02-12 14:46:00,38.5,38.5,30.08,West,270,4.0,11.0,0,0.00,,,0.00,meteohub,2013-02-12 19:46:00,
2013-02-12 14:49:00,38.5,38.5,30.07,West,270,8.0,11.0,0,0.00,,,0.00,meteohub,2013-02-12 19:49:00,
2013-02-12 14:50:00,38.7,38.7,30.07,South,180,4.0,9.0,0,0.00,,,0.00,meteohub,2013-02-12 19:50:00,
2013-02-12 14:51:00,38.7,38.7,30.07,West,270,11.0,11.0,0,0.00,,,0.00,meteohub,2013-02-12 19:51:00,
2013-02-12 14:52:00,38.8,38.8,30.07,North,0,8.0,9.0,0,0.00,,,0.00,meteohub,2013-02-12 19:52:00,
2013-02-12 14:55:00,39.0,39.0,30.07,WSW,248,8.0,9.0,0,0.00,,,0.00,meteohub,2013-02-12 19:55:00,
2013-02-12 14:56:00,39.2,39.2,30.07,West,270,8.0,11.0,0,0.00,,,0.00,meteohub,2013-02-12 19:56:00,
2013-02-12 14:58:00,39.6,39.6,30.08,NE,45,2.0,11.0,0,0.00,,,0.00,meteohub,2013-02-12 19:58:00,
2013-02-12 15:00:00,40.1,40.1,30.07,NW,315,10.0,11.0,0,0.00,,,0.00,meteohub,2013-02-12 20:00:00,
2013-02-12 15:01:00,40.1,40.1,30.07,NW,315,10.0,11.0,0,0.00,,,0.00,meteohub,2013-02-12 20:01:00,
2013-02-12 15:03:00,40.1,40.1,30.07,North,0,9.0,11.0,0,0.00,,,0.00,meteohub,2013-02-12 20:03:00,
2013-02-12 15:05:00,39.2,39.2,30.06,WSW,248,10.0,11.0,0,0.00,,,0.00,meteohub,2013-02-12 20:05:00,
2013-02-12 15:06:00,39.2,39.2,30.06,West,270,4.0,11.0,0,0.00,,,0.00,meteohub,2013-02-12 20:06:00,
2013-02-12 15:09:00,38.8,38.8,30.08,WNW,293,4.0,11.0,0,0.00,,,0.00,meteohub,2013-02-12 20:09:00,
2013-02-12 15:11:00,39.0,39.0,30.08,West,270,2.0,10.0,0,0.00,,,0.00,meteohub,2013-02-12 20:11:00,
2013-02-12 15:12:00,39.2,39.2,30.09,West,270,6.0,10.0,0,0.00,,,0.00,meteohub,2013-02-12 20:12:00,
2013-02-12 15:15:00,38.3,38.3,30.09,West,270,9.0,10.0,0,0.00,,,0.00,meteohub,2013-02-12 20:15:00,
2013-02-12 15:17:00,38.1,38.1,30.09,NW,315,7.0,10.0,0,0.00,,,0.00,meteohub,2013-02-12 20:17:00,
2013-02-12 15:21:00,39.2,39.2,30.09,NW,315,5.0,11.0,0,0.00,,,0.00,meteohub,2013-02-12 20:21:00,
2013-02-12 15:22:00,39.6,39.6,30.10,NW,315,4.0,11.0,0,0.00,,,0.00,meteohub,2013-02-12 20:22:00,
2013-02-12 15:23:00,39.7,39.7,30.10,West,270,11.0,11.0,0,0.00,,,0.00,meteohub,2013-02-12 20:23:00,
2013-02-12 15:27:00,39.2,39.2,30.10,SE,135,3.0,11.0,0,0.00,,,0.00,meteohub,2013-02-12 20:27:00,
2013-02-12 15:28:00,39.2,39.2,30.10,SE,135,3.0,11.0,0,0.00,,,0.00,meteohub,2013-02-12 20:28:00,
2013-02-12 15:29:00,39.6,39.6,30.10,West,270,9.0,11.0,0,0.00,,,0.00,meteohub,2013-02-12 20:29:00,
2013-02-12 15:33:00,38.8,38.8,30.10,North,0,8.0,12.0,0,0.00,,,0.00,meteohub,2013-02-12 20:33:00,
2013-02-12 15:34:00,38.5,38.5,30.11,West,270,6.0,12.0,0,0.00,,,0.00,meteohub,2013-02-12 20:34:00,
2013-02-12 15:36:00,38.7,38.7,30.11,West,270,4.0,15.0,0,0.00,,,0.00,meteohub,2013-02-12 20:36:00,
2013-02-12 15:38:00,38.8,38.8,30.11,NW,315,9.0,15.0,0,0.00,,,0.00,meteohub,2013-02-12 20:38:00,
2013-02-12 15:39:00,38.8,38.8,30.12,NW,315,8.0,15.0,0,0.00,,,0.00,meteohub,2013-02-12 20:39:00,
2013-02-12 15:40:00,38.7,38.7,30.12,South,180,6.0,15.0,0,0.00,,,0.00,meteohub,2013-02-12 20:40:00,
2013-02-12 15:41:00,38.8,38.8,30.12,West,270,5.0,15.0,0,0.00,,,0.00,meteohub,2013-02-12 20:41:00,
2013-02-12 15:44:00,38.1,38.1,30.12,West,270,4.0,15.0,0,0.00,,,0.00,meteohub,2013-02-12 20:44:00,
2013-02-12 15:46:00,37.8,37.8,30.12,NW,315,12.0,15.0,0,0.00,,,0.00,meteohub,2013-02-12 20:46:00,
2013-02-12 15:47:00,37.8,37.8,30.12,WSW,248,7.0,15.0,0,0.00,,,0.00,meteohub,2013-02-12 20:47:00,
2013-02-12 15:49:00,37.6,37.6,30.12,NW,315,15.0,15.0,0,0.00,,,0.00,meteohub,2013-02-12 20:49:00,
2013-02-12 15:51:00,37.0,37.0,30.12,West,270,9.0,12.0,0,0.00,,,0.00,meteohub,2013-02-12 20:51:00,
2013-02-12 15:52:00,37.0,37.0,30.12,West,270,3.0,12.0,0,0.00,,,0.00,meteohub,2013-02-12 20:52:00,
2013-02-12 15:56:00,37.9,37.9,30.12,WSW,248,5.0,15.0,0,0.00,,,0.00,meteohub,2013-02-12 20:56:00,
2013-02-12 15:57:00,37.9,37.9,30.12,WSW,248,5.0,15.0,0,0.00,,,0.00,meteohub,2013-02-12 20:57:00,
2013-02-12 15:58:00,38.1,38.1,30.12,WSW,248,3.0,15.0,0,0.00,,,0.00,meteohub,2013-02-12 20:58:00,
2013-02-12 15:59:00,38.1,38.1,30.12,West,270,4.0,15.0,0,0.00,,,0.00,meteohub,2013-02-12 20:59:00,
2013-02-12 16:01:00,38.1,38.1,30.13,WSW,248,5.0,15.0,0,0.00,,,0.00,meteohub,2013-02-12 21:01:00,
2013-02-12 16:02:00,37.4,37.4,30.13,West,270,4.0,15.0,0,0.00,,,0.00,meteohub,2013-02-12 21:02:00,
2013-02-12 16:03:00,37.4,37.4,30.12,NW,315,3.0,15.0,0,0.00,,,0.00,meteohub,2013-02-12 21:03:00,
2013-02-12 16:05:00,37.6,37.6,30.13,West,270,6.0,15.0,0,0.00,,,0.00,meteohub,2013-02-12 21:05:00,
2013-02-12 16:07:00,38.1,38.1,30.12,West,270,4.0,11.0,0,0.00,,,0.00,meteohub,2013-02-12 21:07:00,
2013-02-12 16:09:00,38.5,38.5,30.13,NW,315,11.0,11.0,0,0.00,,,0.00,meteohub,2013-02-12 21:09:00,
2013-02-12 16:10:00,38.3,38.3,30.13,WSW,248,3.0,11.0,0,0.00,,,0.00,meteohub,2013-02-12 21:10:00,
2013-02-12 16:12:00,37.8,37.8,30.13,West,270,4.0,8.0,0,0.00,,,0.00,meteohub,2013-02-12 21:12:00,
2013-02-12 16:13:00,37.8,37.8,30.13,South,180,7.0,8.0,0,0.00,,,0.00,meteohub,2013-02-12 21:13:00,
2013-02-12 16:15:00,37.9,37.9,30.13,North,0,3.0,8.0,0,0.00,,,0.00,meteohub,2013-02-12 21:15:00,
2013-02-12 16:18:00,37.9,37.9,30.13,SE,135,4.0,11.0,0,0.00,,,0.00,meteohub,2013-02-12 21:18:00,
2013-02-12 16:19:00,37.9,37.9,30.14,NW,315,6.0,11.0,0,0.00,,,0.00,meteohub,2013-02-12 21:19:00,
2013-02-12 16:20:00,37.8,37.8,30.13,West,270,4.0,15.0,0,0.00,,,0.00,meteohub,2013-02-12 21:20:00,
2013-02-12 16:21:00,37.8,37.8,30.14,West,270,7.0,15.0,0,0.00,,,0.00,meteohub,2013-02-12 21:21:00,
2013-02-12 16:23:00,37.6,37.6,30.13,NW,315,8.0,15.0,0,0.00,,,0.00,meteohub,2013-02-12 21:23:00,
2013-02-12 16:24:00,37.2,37.2,30.13,NW,315,6.0,15.0,0,0.00,,,0.00,meteohub,2013-02-12 21:24:00,
2013-02-12 16:25:00,36.9,36.9,30.14,North,0,4.0,15.0,0,0.00,,,0.00,meteohub,2013-02-12 21:25:00,
2013-02-12 16:26:00,36.7,36.7,30.13,NW,315,5.0,15.0,0,0.00,,,0.00,meteohub,2013-02-12 21:26:00,
2013-02-12 16:29:00,36.1,36.1,30.14,South,180,8.0,15.0,0,0.00,,,0.00,meteohub,2013-02-12 21:29:00,
2013-02-12 16:31:00,36.0,36.0,30.15,WSW,248,5.0,15.0,0,0.00,,,0.00,meteohub,2013-02-12 21:31:00,
2013-02-12 16:33:00,35.4,35.4,30.14,North,0,8.0,15.0,0,0.00,,,0.00,meteohub,2013-02-12 21:33:00,
2013-02-12 16:34:00,35.2,35.2,30.15,WSW,248,9.0,15.0,0,0.00,,,0.00,meteohub,2013-02-12 21:34:00,
2013-02-12 16:36:00,35.1,35.1,30.15,West,270,6.0,8.0,0,0.00,,,0.00,meteohub,2013-02-12 21:36:00,
2013-02-12 16:38:00,34.9,34.9,30.15,NW,315,5.0,8.0,0,0.00,,,0.00,meteohub,2013-02-12 21:38:00,
2013-02-12 16:39:00,34.7,34.7,30.15,WSW,248,7.0,8.0,0,0.00,,,0.00,meteohub,2013-02-12 21:39:00,
2013-02-12 16:40:00,34.9,34.9,30.15,NW,315,2.0,9.0,0,0.00,,,0.00,meteohub,2013-02-12 21:40:00,
2013-02-12 16:42:00,34.9,34.9,30.15,NNW,338,7.0,9.0,0,0.00,,,0.00,meteohub,2013-02-12 21:42:00,
2013-02-12 16:43:00,34.9,34.9,30.15,NW,315,4.0,9.0,0,0.00,,,0.00,meteohub,2013-02-12 21:43:00,
2013-02-12 16:45:00,34.9,34.9,30.15,North,0,6.0,9.0,0,0.00,,,0.00,meteohub,2013-02-12 21:45:00,
2013-02-12 16:47:00,35.1,35.1,30.15,North,0,2.0,10.0,0,0.00,,,0.00,meteohub,2013-02-12 21:47:00,
2013-02-12 16:48:00,35.2,35.2,30.15,WSW,248,2.0,10.0,0,0.00,,,0.00,meteohub,2013-02-12 21:48:00,
2013-02-12 16:51:00,35.2,35.2,30.14,East,90,4.0,12.0,0,0.00,,,0.00,meteohub,2013-02-12 21:51:00,
2013-02-12 16:52:00,35.2,35.2,30.14,East,90,4.0,12.0,0,0.00,,,0.00,meteohub,2013-02-12 21:52:00,
2013-02-12 16:54:00,35.2,35.2,30.14,West,270,4.0,12.0,0,0.00,,,0.00,meteohub,2013-02-12 21:54:00,
2013-02-12 16:57:00,35.1,35.1,30.15,West,270,10.0,12.0,0,0.00,,,0.00,meteohub,2013-02-12 21:57:00,
2013-02-12 16:58:00,35.1,35.1,30.15,North,0,8.0,12.0,0,0.00,,,0.00,meteohub,2013-02-12 21:58:00,
2013-02-12 17:00:00,35.1,35.1,30.15,WSW,248,4.0,10.0,0,0.00,,,0.00,meteohub,2013-02-12 22:00:00,
2013-02-12 17:02:00,34.9,34.9,30.15,East,90,4.0,10.0,0,0.00,,,0.00,meteohub,2013-02-12 22:02:00,
2013-02-12 17:03:00,34.9,34.9,30.15,South,180,3.0,10.0,0,0.00,,,0.00,meteohub,2013-02-12 22:03:00,
2013-02-12 17:07:00,34.7,34.7,30.15,NW,315,2.0,10.0,0,0.00,,,0.00,meteohub,2013-02-12 22:07:00,
2013-02-12 17:08:00,34.7,34.7,30.15,North,0,3.0,10.0,0,0.00,,,0.00,meteohub,2013-02-12 22:08:00,
2013-02-12 17:09:00,34.7,34.7,30.15,WSW,248,4.0,10.0,0,0.00,,,0.00,meteohub,2013-02-12 22:09:00,
2013-02-12 17:12:00,34.5,34.5,30.15,WSW,248,3.0,10.0,0,0.00,,,0.00,meteohub,2013-02-12 22:12:00,
2013-02-12 17:13:00,34.5,34.5,30.16,NW,315,2.0,10.0,0,0.00,,,0.00,meteohub,2013-02-12 22:13:00,
2013-02-12 17:14:00,34.5,34.5,30.16,NW,315,3.0,10.0,0,0.00,,,0.00,meteohub,2013-02-12 22:14:00,
2013-02-12 17:18:00,34.3,34.3,30.15,WSW,248,2.0,11.0,0,0.00,,,0.00,meteohub,2013-02-12 22:18:00,
2013-02-12 17:19:00,34.3,34.3,30.15,West,270,2.0,11.0,0,0.00,,,0.00,meteohub,2013-02-12 22:19:00,
2013-02-12 17:23:00,34.2,34.2,30.15,NW,315,5.0,11.0,0,0.00,,,0.00,meteohub,2013-02-12 22:23:00,
2013-02-12 17:24:00,34.2,34.2,30.15,NW,315,5.0,11.0,0,0.00,,,0.00,meteohub,2013-02-12 22:24:00,
2013-02-12 17:25:00,34.2,34.2,30.15,NW,315,2.0,11.0,0,0.00,,,0.00,meteohub,2013-02-12 22:25:00,
2013-02-12 17:29:00,34.0,34.0,30.16,West,270,2.0,11.0,0,0.00,,,0.00,meteohub,2013-02-12 22:29:00,
2013-02-12 17:30:00,34.0,34.0,30.15,West,270,2.0,11.0,0,0.00,,,0.00,meteohub,2013-02-12 22:30:00,
2013-02-12 17:34:00,34.0,34.0,30.16,West,270,2.0,5.0,0,0.00,,,0.00,meteohub,2013-02-12 22:34:00,
2013-02-12 17:35:00,34.0,34.0,30.15,West,270,2.0,5.0,0,0.00,,,0.00,meteohub,2013-02-12 22:35:00,
2013-02-12 17:36:00,34.0,34.0,30.15,West,270,2.0,5.0,0,0.00,,,0.00,meteohub,2013-02-12 22:36:00,
2013-02-12 17:39:00,33.4,33.4,30.15,WSW,248,0.0,5.0,0,0.00,,,0.00,meteohub,2013-02-12 22:39:00,
2013-02-12 17:41:00,33.3,33.3,30.15,WSW,248,2.0,4.0,0,0.00,,,0.00,meteohub,2013-02-12 22:41:00,
2013-02-12 17:43:00,33.3,33.3,30.15,West,270,2.0,4.0,0,0.00,,,0.00,meteohub,2013-02-12 22:43:00,
2013-02-12 17:45:00,33.1,33.1,30.15,NW,315,1.0,4.0,0,0.00,,,0.00,meteohub,2013-02-12 22:45:00,
2013-02-12 17:46:00,33.1,33.1,30.15,West,270,2.0,2.0,0,0.00,,,0.00,meteohub,2013-02-12 22:46:00,
2013-02-12 17:48:00,32.9,32.9,30.15,WSW,248,1.0,2.0,0,0.00,,,0.00,meteohub,2013-02-12 22:48:00,
2013-02-12 17:51:00,32.7,32.7,30.15,WSW,248,1.0,4.0,0,0.00,,,0.00,meteohub,2013-02-12 22:51:00,
2013-02-12 17:53:00,32.5,32.5,30.15,WSW,248,0.0,4.0,0,0.00,,,0.00,meteohub,2013-02-12 22:53:00,
2013-02-12 17:56:00,32.4,32.4,30.16,North,0,0.0,4.0,0,0.00,,,0.00,meteohub,2013-02-12 22:56:00,
2013-02-12 17:57:00,32.4,32.4,30.16,North,0,0.0,4.0,0,0.00,,,0.00,meteohub,2013-02-12 22:57:00,
2013-02-12 17:59:00,32.2,32.2,30.16,NW,315,1.0,4.0,0,0.00,,,0.00,meteohub,2013-02-12 22:59:00,
2013-02-12 18:02:00,32.2,32.2,30.15,NW,315,2.0,4.0,0,0.00,,,0.00,meteohub,2013-02-12 23:02:00,
2013-02-12 18:03:00,32.2,32.2,30.15,NW,315,2.0,4.0,0,0.00,,,0.00,meteohub,2013-02-12 23:03:00,
2013-02-12 18:04:00,32.2,32.2,30.16,NW,315,2.0,4.0,0,0.00,,,0.00,meteohub,2013-02-12 23:04:00,
2013-02-12 18:05:00,32.2,32.2,30.15,NW,315,2.0,4.0,0,0.00,,,0.00,meteohub,2013-02-12 23:05:00,
2013-02-12 18:08:00,31.6,31.6,30.15,NW,315,1.0,2.0,0,0.00,,,0.00,meteohub,2013-02-12 23:08:00,
2013-02-12 18:09:00,31.6,31.6,30.15,NW,315,2.0,2.0,0,0.00,,,0.00,meteohub,2013-02-12 23:09:00,
2013-02-12 18:10:00,31.6,31.6,30.15,NW,315,1.0,2.0,0,0.00,,,0.00,meteohub,2013-02-12 23:10:00,
2013-02-12 18:13:00,31.3,31.3,30.15,NW,315,0.0,2.0,0,0.00,,,0.00,meteohub,2013-02-12 23:13:00,
2013-02-12 18:14:00,31.3,31.3,30.15,WSW,248,1.0,2.0,0,0.00,,,0.00,meteohub,2013-02-12 23:14:00,
2013-02-12 18:15:00,31.3,31.3,30.15,WSW,248,1.0,2.0,0,0.00,,,0.00,meteohub,2013-02-12 23:15:00,
2013-02-12 18:16:00,31.1,31.1,30.15,WSW,248,1.0,2.0,0,0.00,,,0.00,meteohub,2013-02-12 23:16:00,
2013-02-12 18:19:00,30.9,30.9,30.15,West,270,0.0,2.0,0,0.00,,,0.00,meteohub,2013-02-12 23:19:00,
2013-02-12 18:20:00,30.7,30.7,30.15,WSW,248,0.0,2.0,0,0.00,,,0.00,meteohub,2013-02-12 23:20:00,
2013-02-12 18:21:00,30.7,30.7,30.15,WSW,248,0.0,2.0,0,0.00,,,0.00,meteohub,2013-02-12 23:21:00,
2013-02-12 18:24:00,30.6,30.6,30.15,WSW,248,0.0,2.0,0,0.00,,,0.00,meteohub,2013-02-12 23:24:00,
2013-02-12 18:25:00,30.6,30.6,30.15,WSW,248,0.0,1.0,0,0.00,,,0.00,meteohub,2013-02-12 23:25:00,
2013-02-12 18:26:00,30.4,30.4,30.15,West,270,0.0,1.0,0,0.00,,,0.00,meteohub,2013-02-12 23:26:00,
2013-02-12 18:29:00,30.4,30.4,30.15,West,270,0.0,1.0,0,0.00,,,0.00,meteohub,2013-02-12 23:29:00,
2013-02-12 18:31:00,30.4,30.4,30.15,NW,315,0.0,1.0,0,0.00,,,0.00,meteohub,2013-02-12 23:31:00,
2013-02-12 18:32:00,30.4,30.4,30.15,NW,315,0.0,1.0,0,0.00,,,0.00,meteohub,2013-02-12 23:32:00,
2013-02-12 18:35:00,30.2,30.2,30.15,North,0,0.0,1.0,0,0.00,,,0.00,meteohub,2013-02-12 23:35:00,
2013-02-12 18:36:00,30.2,30.2,30.15,North,0,0.0,0.0,0,0.00,,,0.00,meteohub,2013-02-12 23:36:00,
2013-02-12 18:37:00,30.2,30.2,30.15,NW,315,0.0,0.0,0,0.00,,,0.00,meteohub,2013-02-12 23:37:00,
2013-02-12 18:40:00,30.0,30.0,30.15,NW,315,0.0,0.0,0,0.00,,,0.00,meteohub,2013-02-12 23:40:00,
2013-02-12 18:41:00,30.0,30.0,30.14,NW,315,0.0,0.0,0,0.00,,,0.00,meteohub,2013-02-12 23:41:00,
2013-02-12 18:42:00,30.0,30.0,30.15,West,270,0.0,0.0,0,0.00,,,0.00,meteohub,2013-02-12 23:42:00,
2013-02-12 18:43:00,30.0,30.0,30.15,West,270,0.0,0.0,0,0.00,,,0.00,meteohub,2013-02-12 23:43:00,
2013-02-12 18:46:00,30.0,30.0,30.15,West,270,0.0,0.0,0,0.00,,,0.00,meteohub,2013-02-12 23:46:00,
2013-02-12 18:47:00,29.8,29.8,30.14,West,270,0.0,0.0,0,0.00,,,0.00,meteohub,2013-02-12 23:47:00,
2013-02-12 18:49:00,30.0,30.0,30.14,NW,315,0.0,0.0,0,0.00,,,0.00,meteohub,2013-02-12 23:49:00,
2013-02-12 18:50:00,30.0,30.0,30.14,NW,315,0.0,0.0,0,0.00,,,0.00,meteohub,2013-02-12 23:50:00,
2013-02-12 18:51:00,30.0,30.0,30.15,NW,315,1.0,0.0,0,0.00,,,0.00,meteohub,2013-02-12 23:51:00,
2013-02-12 18:53:00,30.0,30.0,30.14,NW,315,1.0,0.0,0,0.00,,,0.00,meteohub,2013-02-12 23:53:00,
2013-02-12 18:55:00,29.8,29.8,30.15,NW,315,0.0,0.0,0,0.00,,,0.00,meteohub,2013-02-12 23:55:00,
2013-02-12 18:56:00,29.8,29.8,30.15,North,0,0.0,2.0,0,0.00,,,0.00,meteohub,2013-02-12 23:56:00,
2013-02-12 18:57:00,29.8,29.8,30.15,NE,45,0.0,2.0,0,0.00,,,0.00,meteohub,2013-02-12 23:57:00,
2013-02-12 18:58:00,29.8,29.8,30.15,NW,315,0.0,2.0,0,0.00,,,0.00,meteohub,2013-02-12 23:58:00,
2013-02-12 19:01:00,29.8,29.8,30.14,NW,315,0.0,2.0,0,0.00,,,0.00,meteohub,2013-02-13 00:01:00,
2013-02-12 19:02:00,29.8,29.8,30.14,NW,315,0.0,2.0,0,0.00,,,0.00,meteohub,2013-02-13 00:02:00,
2013-02-12 19:03:00,29.8,29.8,30.15,NW,315,0.0,2.0,0,0.00,,,0.00,meteohub,2013-02-13 00:03:00,
2013-02-12 19:06:00,29.8,29.8,30.14,NW,315,0.0,2.0,0,0.00,,,0.00,meteohub,2013-02-13 00:06:00,
2013-02-12 19:07:00,29.7,-20.4,30.14,North,0,1.0,2.0,10,0.00,,,0.00,meteohub,2013-02-13 00:07:00,
2013-02-12 19:08:00,29.7,-20.4,30.14,NE,45,2.0,2.0,10,0.00,,,0.00,meteohub,2013-02-13 00:08:00,
2013-02-12 19:09:00,29.7,-20.4,30.14,North,0,1.0,2.0,10,0.00,,,0.00,meteohub,2013-02-13 00:09:00,
2013-02-12 19:12:00,29.5,-20.4,30.14,NE,45,1.0,2.0,10,0.00,,,0.00,meteohub,2013-02-13 00:12:00,
2013-02-12 19:14:00,29.3,-20.6,30.14,NE,45,0.0,2.0,10,0.00,,,0.00,meteohub,2013-02-13 00:14:00,
2013-02-12 19:18:00,29.3,-20.6,30.13,East,90,1.0,2.0,10,0.00,,,0.00,meteohub,2013-02-13 00:18:00,
2013-02-12 19:19:00,29.3,-20.6,30.13,North,0,1.0,2.0,10,0.00,,,0.00,meteohub,2013-02-13 00:19:00,
2013-02-12 19:20:00,29.3,-20.6,30.13,North,0,1.0,2.0,10,0.00,,,0.00,meteohub,2013-02-13 00:20:00,
2013-02-12 19:24:00,29.1,-20.7,30.12,NE,45,0.0,2.0,10,0.00,,,0.00,meteohub,2013-02-13 00:24:00,
2013-02-12 19:25:00,29.1,-20.7,30.13,NE,45,0.0,1.0,10,0.00,,,0.00,meteohub,2013-02-13 00:25:00,
2013-02-12 19:26:00,29.1,-20.7,30.13,NE,45,0.0,1.0,10,0.00,,,0.00,meteohub,2013-02-13 00:26:00,
2013-02-12 19:30:00,29.1,-18.9,30.12,NE,45,0.0,1.0,11,0.00,,,0.00,meteohub,2013-02-13 00:30:00,
2013-02-12 19:31:00,29.1,-18.9,30.12,NE,45,0.0,1.0,11,0.00,,,0.00,meteohub,2013-02-13 00:31:00,
2013-02-12 19:35:00,29.1,-18.9,30.13,North,0,1.0,1.0,11,0.00,,,0.00,meteohub,2013-02-13 00:35:00,
2013-02-12 19:36:00,29.1,-18.9,30.13,NE,45,2.0,2.0,11,0.00,,,0.00,meteohub,2013-02-13 00:36:00,
2013-02-12 19:40:00,29.3,-18.8,30.12,East,90,0.0,2.0,11,0.00,,,0.00,meteohub,2013-02-13 00:40:00,
2013-02-12 19:41:00,29.3,-18.8,30.13,East,90,0.0,2.0,11,0.00,,,0.00,meteohub,2013-02-13 00:41:00,
2013-02-12 19:42:00,29.3,-20.6,30.12,East,90,0.0,2.0,10,0.00,,,0.00,meteohub,2013-02-13 00:42:00,
2013-02-12 19:43:00,29.3,-20.6,30.12,East,90,0.0,2.0,10,0.00,,,0.00,meteohub,2013-02-13 00:43:00,
2013-02-12 19:46:00,29.5,-20.4,30.12,NE,45,1.0,2.0,10,0.00,,,0.00,meteohub,2013-02-13 00:46:00,
2013-02-12 19:48:00,29.5,-20.4,30.11,NE,45,1.0,2.0,10,0.00,,,0.00,meteohub,2013-02-13 00:48:00,
2013-02-12 19:52:00,29.5,-20.4,30.11,NE,45,0.0,2.0,10,0.00,,,0.00,meteohub,2013-02-13 00:52:00,
2013-02-12 19:53:00,29.5,-20.4,30.11,NE,45,0.0,2.0,10,0.00,,,0.00,meteohub,2013-02-13 00:53:00,
2013-02-12 19:54:00,29.3,29.3,30.11,NE,45,1.0,2.0,0,0.00,,,0.00,meteohub,2013-02-13 00:54:00,
2013-02-12 19:58:00,29.3,-20.6,30.11,NE,45,1.0,2.0,10,0.00,,,0.00,meteohub,2013-02-13 00:58:00,
2013-02-12 19:59:00,29.3,-20.6,30.11,NE,45,1.0,2.0,10,0.00,,,0.00,meteohub,2013-02-13 00:59:00,
2013-02-12 20:02:00,29.3,-20.6,30.11,NE,45,2.0,2.0,10,0.00,,,0.00,meteohub,2013-02-13 01:02:00,
2013-02-12 20:03:00,29.3,-20.6,30.11,NE,45,2.0,2.0,10,0.00,,,0.00,meteohub,2013-02-13 01:03:00,
2013-02-12 20:04:00,29.3,-20.6,30.11,NE,45,2.0,2.0,10,0.00,,,0.00,meteohub,2013-02-13 01:04:00,
2013-02-12 20:08:00,29.5,-20.4,30.11,North,0,3.0,3.0,10,0.00,,,0.00,meteohub,2013-02-13 01:08:00,
2013-02-12 20:09:00,29.5,-20.4,30.12,North,0,2.0,2.0,10,0.00,,,0.00,meteohub,2013-02-13 01:09:00,
2013-02-12 20:13:00,29.5,29.5,30.11,North,0,2.0,3.0,0,0.00,,,0.00,meteohub,2013-02-13 01:13:00,
2013-02-12 20:14:00,29.5,29.5,30.11,North,0,2.0,3.0,0,0.00,,,0.00,meteohub,2013-02-13 01:14:00,
2013-02-12 20:18:00,29.5,29.5,30.12,North,0,3.0,4.0,0,0.00,,,0.00,meteohub,2013-02-13 01:18:00,
2013-02-12 20:19:00,29.5,29.5,30.12,North,0,2.0,4.0,0,0.00,,,0.00,meteohub,2013-02-13 01:19:00,
2013-02-12 20:20:00,29.5,29.5,30.12,North,0,2.0,4.0,0,0.00,,,0.00,meteohub,2013-02-13 01:20:00,
2013-02-12 20:24:00,29.3,29.3,30.12,East,90,2.0,4.0,0,0.00,,,0.00,meteohub,2013-02-13 01:24:00,
2013-02-12 20:25:00,29.3,29.3,30.12,NE,45,2.0,4.0,0,0.00,,,0.00,meteohub,2013-02-13 01:25:00,
2013-02-12 20:29:00,29.3,29.3,30.12,North,0,2.0,4.0,0,0.00,,,0.00,meteohub,2013-02-13 01:29:00,
2013-02-12 20:30:00,29.1,29.1,30.11,NE,45,2.0,4.0,0,0.00,,,0.00,meteohub,2013-02-13 01:30:00,
2013-02-12 20:33:00,29.1,29.1,30.11,NE,45,2.0,4.0,0,0.00,,,0.00,meteohub,2013-02-13 01:33:00,
2013-02-12 20:34:00,29.1,29.1,30.11,NE,45,2.0,4.0,0,0.00,,,0.00,meteohub,2013-02-13 01:34:00,
2013-02-12 20:35:00,29.1,29.1,30.10,North,0,2.0,4.0,0,0.00,,,0.00,meteohub,2013-02-13 01:35:00,
2013-02-12 20:38:00,28.9,28.9,30.10,NE,45,2.0,3.0,0,0.00,,,0.00,meteohub,2013-02-13 01:38:00,
2013-02-12 20:40:00,28.9,28.9,30.11,NW,315,2.0,3.0,0,0.00,,,0.00,meteohub,2013-02-13 01:40:00,
2013-02-12 20:43:00,28.9,-20.9,30.11,NE,45,3.0,3.0,10,0.00,,,0.00,meteohub,2013-02-13 01:43:00,
2013-02-12 20:45:00,28.9,-20.9,30.11,NE,45,3.0,3.0,10,0.00,,,0.00,meteohub,2013-02-13 01:45:00,
2013-02-12 20:46:00,28.9,-20.9,30.11,NE,45,2.0,4.0,10,0.00,,,0.00,meteohub,2013-02-13 01:46:00,
2013-02-12 20:49:00,28.9,-20.9,30.11,North,0,3.0,4.0,10,0.00,,,0.00,meteohub,2013-02-13 01:49:00,
2013-02-12 20:50:00,28.9,-20.9,30.10,North,0,2.0,4.0,10,0.00,,,0.00,meteohub,2013-02-13 01:50:00,
2013-02-12 20:51:00,28.9,-20.9,30.10,North,0,2.0,4.0,10,0.00,,,0.00,meteohub,2013-02-13 01:51:00,
2013-02-12 20:52:00,28.9,-20.9,30.11,NE,45,2.0,4.0,10,0.00,,,0.00,meteohub,2013-02-13 01:52:00,
2013-02-12 20:55:00,28.9,28.9,30.10,North,0,2.0,4.0,0,0.00,,,0.00,meteohub,2013-02-13 01:55:00,
2013-02-12 20:56:00,28.9,-20.9,30.10,NE,45,2.0,4.0,10,0.00,,,0.00,meteohub,2013-02-13 01:56:00,
2013-02-12 20:57:00,28.9,-20.9,30.10,NE,45,1.0,4.0,10,0.00,,,0.00,meteohub,2013-02-13 01:57:00,
2013-02-12 21:00:00,28.8,-20.9,30.10,North,0,2.0,4.0,10,0.00,,,0.00,meteohub,2013-02-13 02:00:00,
2013-02-12 21:01:00,28.8,-20.9,30.10,North,0,2.0,4.0,10,0.00,,,0.00,meteohub,2013-02-13 02:01:00,
2013-02-12 21:02:00,28.8,-20.9,30.10,North,0,2.0,4.0,10,0.00,,,0.00,meteohub,2013-02-13 02:02:00,
2013-02-12 21:03:00,28.8,-20.9,30.10,North,0,2.0,4.0,10,0.00,,,0.00,meteohub,2013-02-13 02:03:00,
2013-02-12 21:06:00,28.8,-20.9,30.10,North,0,2.0,3.0,10,0.00,,,0.00,meteohub,2013-02-13 02:06:00,
2013-02-12 21:07:00,28.8,-20.9,30.10,North,0,2.0,3.0,10,0.00,,,0.00,meteohub,2013-02-13 02:07:00,
2013-02-12 21:09:00,28.6,-21.1,30.11,East,90,2.0,3.0,10,0.00,,,0.00,meteohub,2013-02-13 02:09:00,
2013-02-12 21:12:00,28.6,-21.1,30.10,East,90,1.0,2.0,10,0.00,,,0.00,meteohub,2013-02-13 02:12:00,
2013-02-12 21:14:00,28.6,-21.1,30.10,SE,135,2.0,2.0,10,0.00,,,0.00,meteohub,2013-02-13 02:14:00,
2013-02-12 21:17:00,28.4,-21.3,30.10,SE,135,0.0,2.0,10,0.00,,,0.00,meteohub,2013-02-13 02:17:00,
2013-02-12 21:18:00,28.2,-21.5,30.10,East,90,0.0,2.0,10,0.00,,,0.00,meteohub,2013-02-13 02:18:00,
2013-02-12 21:19:00,28.2,-21.5,30.10,NE,45,1.0,2.0,10,0.00,,,0.00,meteohub,2013-02-13 02:19:00,
2013-02-12 21:23:00,28.2,-19.7,30.10,NE,45,3.0,3.0,11,0.00,,,0.00,meteohub,2013-02-13 02:23:00,
2013-02-12 21:24:00,28.2,-17.9,30.09,NE,45,2.0,2.0,12,0.00,,,0.00,meteohub,2013-02-13 02:24:00,
2013-02-12 21:28:00,28.4,-17.9,30.10,NE,45,2.0,3.0,12,0.00,,,0.00,meteohub,2013-02-13 02:28:00,
2013-02-12 21:29:00,28.4,-17.9,30.10,NE,45,2.0,3.0,12,0.00,,,0.00,meteohub,2013-02-13 02:29:00,
2013-02-12 21:30:00,28.4,-17.9,30.09,NE,45,2.0,3.0,12,0.00,,,0.00,meteohub,2013-02-13 02:30:00,
2013-02-12 21:34:00,28.4,-19.5,30.09,NE,45,0.0,3.0,11,0.00,,,0.00,meteohub,2013-02-13 02:34:00,
2013-02-12 21:35:00,28.4,-19.5,30.10,East,90,2.0,3.0,11,0.00,,,0.00,meteohub,2013-02-13 02:35:00,
2013-02-12 21:39:00,28.4,-19.5,30.10,NE,45,0.0,3.0,11,0.00,,,0.00,meteohub,2013-02-13 02:39:00,
2013-02-12 21:40:00,28.4,-19.5,30.10,NE,45,0.0,3.0,11,0.00,,,0.00,meteohub,2013-02-13 02:40:00,
2013-02-12 21:45:00,28.0,-19.7,30.10,NE,45,0.0,2.0,11,0.00,,,0.00,meteohub,2013-02-13 02:45:00,
2013-02-12 21:46:00,28.0,-21.6,30.11,NE,45,0.0,2.0,10,0.00,,,0.00,meteohub,2013-02-13 02:46:00,
2013-02-12 21:47:00,28.0,-19.7,30.11,NE,45,0.0,2.0,11,0.00,,,0.00,meteohub,2013-02-13 02:47:00,
2013-02-12 21:50:00,27.9,-19.8,30.11,NE,45,0.0,2.0,11,0.00,,,0.00,meteohub,2013-02-13 02:50:00,
2013-02-12 21:51:00,27.9,-19.8,30.11,NE,45,0.0,2.0,11,0.00,,,0.00,meteohub,2013-02-13 02:51:00,
2013-02-12 21:52:00,27.9,-19.8,30.11,NE,45,0.0,2.0,11,0.00,,,0.00,meteohub,2013-02-13 02:52:00,
2013-02-12 21:55:00,27.9,-18.2,30.11,East,90,0.0,0.0,12,0.00,,,0.00,meteohub,2013-02-13 02:55:00,
2013-02-12 21:56:00,27.9,-18.2,30.11,East,90,0.0,0.0,12,0.00,,,0.00,meteohub,2013-02-13 02:56:00,
2013-02-12 21:57:00,27.9,-18.2,30.11,East,90,0.0,0.0,12,0.00,,,0.00,meteohub,2013-02-13 02:57:00,
2013-02-12 22:01:00,27.7,-18.4,30.11,East,90,0.0,0.0,12,0.00,,,0.00,meteohub,2013-02-13 03:01:00,
2013-02-12 22:02:00,27.7,-18.4,30.11,East,90,0.0,0.0,12,0.00,,,0.00,meteohub,2013-02-13 03:02:00,
2013-02-12 22:03:00,27.7,-18.4,30.11,East,90,0.0,0.0,12,0.00,,,0.00,meteohub,2013-02-13 03:03:00,
2013-02-12 22:06:00,27.7,-18.4,30.10,East,90,0.0,0.0,12,0.00,,,0.00,meteohub,2013-02-13 03:06:00,
2013-02-12 22:07:00,27.7,-18.4,30.10,East,90,0.0,0.0,12,0.00,,,0.00,meteohub,2013-02-13 03:07:00,
2013-02-12 22:08:00,27.7,-18.4,30.10,SE,135,0.0,0.0,12,0.00,,,0.00,meteohub,2013-02-13 03:08:00,
2013-02-12 22:09:00,27.7,-18.4,30.10,SE,135,0.0,0.0,12,0.00,,,0.00,meteohub,2013-02-13 03:09:00,
2013-02-12 22:11:00,27.5,-18.6,30.10,SE,135,0.0,0.0,12,0.00,,,0.00,meteohub,2013-02-13 03:11:00,
2013-02-12 22:12:00,27.5,-18.6,30.10,SE,135,0.0,0.0,12,0.00,,,0.00,meteohub,2013-02-13 03:12:00,
2013-02-12 22:13:00,27.5,-18.6,30.10,SE,135,0.0,0.0,12,0.00,,,0.00,meteohub,2013-02-13 03:13:00,
2013-02-12 22:14:00,27.5,-18.6,30.10,SE,135,0.0,0.0,12,0.00,,,0.00,meteohub,2013-02-13 03:14:00,
2013-02-12 22:16:00,27.3,-18.6,30.10,SE,135,0.0,1.0,12,0.00,,,0.00,meteohub,2013-02-13 03:16:00,
2013-02-12 22:18:00,27.3,-18.6,30.10,SE,135,0.0,1.0,12,0.00,,,0.00,meteohub,2013-02-13 03:18:00,
2013-02-12 22:19:00,27.3,-17.1,30.10,SE,135,0.0,1.0,13,0.00,,,0.00,meteohub,2013-02-13 03:19:00,
2013-02-12 22:23:00,27.3,-17.1,30.10,SE,135,0.0,1.0,13,0.00,,,0.00,meteohub,2013-02-13 03:23:00,
2013-02-12 22:24:00,27.3,-17.1,30.10,SE,135,0.0,1.0,13,0.00,,,0.00,meteohub,2013-02-13 03:24:00,
2013-02-12 22:25:00,27.3,-17.1,30.10,SE,135,0.0,1.0,13,0.00,,,0.00,meteohub,2013-02-13 03:25:00,
2013-02-12 22:28:00,27.3,-15.7,30.10,SE,135,0.0,1.0,14,0.00,,,0.00,meteohub,2013-02-13 03:28:00,
2013-02-12 22:29:00,27.3,-15.7,30.10,SE,135,0.0,1.0,14,0.00,,,0.00,meteohub,2013-02-13 03:29:00,
2013-02-12 22:30:00,27.1,-15.7,30.10,SE,135,0.0,1.0,14,0.00,,,0.00,meteohub,2013-02-13 03:30:00,
2013-02-12 22:34:00,27.1,-15.7,30.10,SE,135,0.0,0.0,14,0.00,,,0.00,meteohub,2013-02-13 03:34:00,
2013-02-12 22:35:00,27.1,-15.7,30.10,SE,135,0.0,0.0,14,0.00,,,0.00,meteohub,2013-02-13 03:35:00,
2013-02-12 22:39:00,27.1,-15.7,30.09,East,90,2.0,0.0,14,0.00,,,0.00,meteohub,2013-02-13 03:39:00,
2013-02-12 22:40:00,27.1,-15.7,30.09,East,90,2.0,0.0,14,0.00,,,0.00,meteohub,2013-02-13 03:40:00,
2013-02-12 22:41:00,27.1,-15.7,30.10,East,90,2.0,2.0,14,0.00,,,0.00,meteohub,2013-02-13 03:41:00,
2013-02-12 22:45:00,27.1,-14.4,30.09,SE,135,2.0,2.0,15,0.00,,,0.00,meteohub,2013-02-13 03:45:00,
2013-02-12 22:46:00,27.1,-14.4,30.10,SE,135,2.0,2.0,15,0.00,,,0.00,meteohub,2013-02-13 03:46:00,
2013-02-12 22:50:00,27.1,-14.4,30.09,SE,135,2.0,2.0,15,0.00,,,0.00,meteohub,2013-02-13 03:50:00,
2013-02-12 22:51:00,27.1,-14.4,30.09,SE,135,2.0,2.0,15,0.00,,,0.00,meteohub,2013-02-13 03:51:00,
2013-02-12 22:52:00,27.1,-14.4,30.10,SE,135,2.0,2.0,15,0.00,,,0.00,meteohub,2013-02-13 03:52:00,
2013-02-12 22:55:00,27.1,-14.4,30.09,SE,135,3.0,3.0,15,0.00,,,0.00,meteohub,2013-02-13 03:55:00,
2013-02-12 22:56:00,27.3,-14.3,30.09,SE,135,2.0,2.0,15,0.00,,,0.00,meteohub,2013-02-13 03:56:00,
2013-02-12 22:57:00,27.3,-14.3,30.10,SE,135,2.0,2.0,15,0.00,,,0.00,meteohub,2013-02-13 03:57:00,
2013-02-12 23:01:00,27.3,-14.3,30.09,SE,135,2.0,3.0,15,0.00,,,0.00,meteohub,2013-02-13 04:01:00,
2013-02-12 23:02:00,27.3,-14.3,30.09,SE,135,2.0,3.0,15,0.00,,,0.00,meteohub,2013-02-13 04:02:00,
2013-02-12 23:03:00,27.3,-14.3,30.09,SE,135,2.0,3.0,15,0.00,,,0.00,meteohub,2013-02-13 04:03:00,
2013-02-12 23:06:00,27.3,-14.3,30.09,SE,135,2.0,3.0,15,0.00,,,0.00,meteohub,2013-02-13 04:06:00,
2013-02-12 23:07:00,27.3,-14.3,30.09,SE,135,2.0,3.0,15,0.00,,,0.00,meteohub,2013-02-13 04:07:00,
2013-02-12 23:08:00,27.5,-14.1,30.09,SE,135,2.0,3.0,15,0.00,,,0.00,meteohub,2013-02-13 04:08:00,
2013-02-12 23:12:00,27.5,-15.5,30.09,SE,135,2.0,3.0,14,0.00,,,0.00,meteohub,2013-02-13 04:12:00,
2013-02-12 23:13:00,27.5,-15.5,30.09,SE,135,2.0,3.0,14,0.00,,,0.00,meteohub,2013-02-13 04:13:00,
2013-02-12 23:14:00,27.5,-15.5,30.10,SE,135,2.0,3.0,14,0.00,,,0.00,meteohub,2013-02-13 04:14:00,
2013-02-12 23:15:00,27.7,-15.3,30.10,SE,135,2.0,3.0,14,0.00,,,0.00,meteohub,2013-02-13 04:15:00,
2013-02-12 23:17:00,27.7,-15.3,30.09,SE,135,2.0,2.0,14,0.00,,,0.00,meteohub,2013-02-13 04:17:00,
2013-02-12 23:19:00,27.7,-15.3,30.09,SE,135,1.0,2.0,14,0.00,,,0.00,meteohub,2013-02-13 04:19:00,
2013-02-12 23:20:00,27.7,-15.3,30.09,SE,135,2.0,2.0,14,0.00,,,0.00,meteohub,2013-02-13 04:20:00,
2013-02-12 23:23:00,27.7,-15.3,30.09,SE,135,2.0,2.0,14,0.00,,,0.00,meteohub,2013-02-13 04:23:00,
2013-02-12 23:24:00,27.7,-15.3,30.09,SE,135,2.0,2.0,14,0.00,,,0.00,meteohub,2013-02-13 04:24:00,
2013-02-12 23:25:00,27.7,-15.3,30.09,SE,135,2.0,2.0,14,0.00,,,0.00,meteohub,2013-02-13 04:25:00,
2013-02-12 23:28:00,27.9,-16.6,30.09,SE,135,2.0,2.0,13,0.00,,,0.00,meteohub,2013-02-13 04:28:00,
2013-02-12 23:30:00,27.9,-16.6,30.08,SE,135,2.0,2.0,13,0.00,,,0.00,meteohub,2013-02-13 04:30:00,
2013-02-12 23:31:00,28.0,-16.4,30.09,SE,135,2.0,2.0,13,0.00,,,0.00,meteohub,2013-02-13 04:31:00,
2013-02-12 23:34:00,28.2,-16.4,30.09,South,180,2.0,2.0,13,0.00,,,0.00,meteohub,2013-02-13 04:34:00,
2013-02-12 23:35:00,28.2,-17.9,30.09,South,180,0.0,2.0,12,0.00,,,0.00,meteohub,2013-02-13 04:35:00,
2013-02-12 23:37:00,28.2,-17.9,30.09,South,180,2.0,2.0,12,0.00,,,0.00,meteohub,2013-02-13 04:37:00,
2013-02-12 23:39:00,28.4,-17.9,30.09,South,180,2.0,2.0,12,0.00,,,0.00,meteohub,2013-02-13 04:39:00,
2013-02-12 23:40:00,28.6,-17.7,30.09,South,180,2.0,2.0,12,0.00,,,0.00,meteohub,2013-02-13 04:40:00,
2013-02-12 23:41:00,28.6,-17.7,30.09,WSW,248,1.0,2.0,12,0.00,,,0.00,meteohub,2013-02-13 04:41:00,
2013-02-12 23:42:00,28.8,-17.5,30.09,South,180,2.0,2.0,12,0.00,,,0.00,meteohub,2013-02-13 04:42:00,
2013-02-12 23:44:00,28.9,-19.1,30.09,South,180,3.0,3.0,11,0.00,,,0.00,meteohub,2013-02-13 04:44:00,
2013-02-12 23:46:00,29.1,-18.9,30.09,South,180,2.0,2.0,11,0.00,,,0.00,meteohub,2013-02-13 04:46:00,
2013-02-12 23:47:00,29.1,-20.7,30.09,South,180,2.0,2.0,10,0.00,,,0.00,meteohub,2013-02-13 04:47:00,
2013-02-12 23:50:00,29.1,-20.7,30.09,WSW,248,3.0,3.0,10,0.00,,,0.00,meteohub,2013-02-13 04:50:00,
2013-02-12 23:51:00,29.1,-20.7,30.09,WSW,248,3.0,3.0,10,0.00,,,0.00,meteohub,2013-02-13 04:51:00,
2013-02-12 23:52:00,29.1,-20.7,30.09,South,180,2.0,3.0,10,0.00,,,0.00,meteohub,2013-02-13 04:52:00,
2013-02-12 23:54:00,29.3,29.3,30.09,SSE,158,2.0,3.0,0,0.00,,,0.00,meteohub,2013-02-13 04:54:00,
2013-02-12 23:55:00,29.3,29.3,30.09,WSW,248,2.0,3.0,0,0.00,,,0.00,meteohub,2013-02-13 04:55:00,
2013-02-12 23:57:00,29.3,29.3,30.09,South,180,2.0,3.0,0,0.00,,,0.00,meteohub,2013-02-13 04:57:00,
2013-02-12 23:58:00,29.3,29.3,30.09,South,180,2.0,3.0,0,0.00,,,0.00,meteohub,2013-02-13 04:58:00,